GFSFLT1_850_dewp_000.txt.gz
Dewpoint
8 6 6 2 0 -2 -7 -3 -2 9 1 1 -4 -6 2 7 8 9 9 5 -5 -7 -8 -8 -9 -10 -13 -13 -12 -19 -20 -19 -18
10 7 6 4 3 0 -7 -10 -8 -5 -5 -4 -5 -6 4 7 8 9 8 -8 -7 -8 -7 -8 -7 -8 -9 -11 -10 -12 -15 -17 -19
9 9 10 9 6 4 -3 -10 -11 -8 -6 -6 -6 -8 3 6 8 8 6 -8 -8 -7 -7 -7 -7 -7 -7 -8 -8 -8 -9 -9 -10
9 9 9 9 9 5 -2 -7 -10 -10 -7 -6 -7 -8 -1 2 5 3 -1 -8 -7 -7 -7 -6 -6 -6 -6 -6 -6 -6 -6 -6 -6
8 7 9 9 9 5 0 -7 -8 -10 -8 -8 -8 -8 -7 -2 -3 4 3 -2 -7 -7 -7 -6 -6 -5 -5 -5 -5 -5 -5 -5 -4
8 5 2 4 5 3 -1 -9 -10 -9 -7 -8 -9 -9 -8 -3 -3 2 -0 -5 -6 -6 -6 -6 -6 -6 -5 -5 -4 -4 -4 -3 -3
10 6 3 1 -1 -2 -4 -10 -12 -9 -6 -7 -8 -9 -9 -6 1 2 0 -4 -6 -6 -5 -5 -5 -5 -5 -5 -5 -4 -4 -4 -3
7 4 -0 1 -5 -4 -5 -10 -13 -8 -5 -4 -3 -8 -10 -4 -4 -0 -2 -3 -6 -6 -6 -6 -6 -5 -5 -5 -5 -5 -4 -4 -4
2 -1 -1 -0 -3 0 -4 -4 -11 -8 -6 -4 -3 -2 -4 -2 -3 -5 -5 -4 -6 -6 -6 -6 -6 -6 -6 -6 -6 -6 -5 -5 -4
4 3 4 3 0 -0 3 2 -2 0 -4 -6 -5 -6 -5 -5 -5 -6 -8 -7 -7 -7 -7 -7 -7 -7 -7 -7 -7 -7 -6 -6 -6
4 4 2 2 2 1 1 1 -2 -4 -2 -2 -3 -4 -6 -7 -7 -7 -8 -8 -8 -8 -7 -7 -7 -7 -7 -7 -7 -6 -6 -5 -5
4 5 4 3 2 1 0 -0 3 3 2 1 2 1 -1 -4 -6 -8 -8 -8 -8 -7 -7 -7 -7 -7 -7 -7 -7 -6 -6 -5 -4
6 6 6 6 5 4 3 2 2 2 2 3 4 5 2 -0 -1 -3 -5 -6 -7 -7 -7 -7 -7 -7 -6 -7 -6 -6 -5 -4 -4
3 5 6 7 7 6 5 5 5 5 5 6 5 4 3 4 4 2 0 -2 -3 -5 -6 -6 -6 -6 -6 -5 -5 -5 -5 -4 -3
3 3 5 7 8 8 8 7 7 7 6 7 7 6 6 5 4 4 4 4 3 2 -0 -3 -5 -5 -5 -5 -6 -7 -5 -4 -2
2 4 5 8 9 9 9 9 8 8 8 8 8 8 7 7 7 6 5 3 3 3 2 0 -1 -3 -3 -4 -5 -5 -4 -5 -4
6 6 6 8 9 10 10 10 10 9 9 9 9 9 8 7 6 5 4 3 4 5 6 5 3 1 -1 -2 -2 -0 2 2 3
10 10 10 10 11 10 10 11 11 10 10 10 9 9 8 6 6 5 4 4 6 7 5 5 4 2 -1 4 5 5 5 5 5
7 8 10 11 11 11 11 11 11 11 10 10 9 9 9 8 7 7 6 5 5 5 3 2 2 3 3 5 5 6 6 5 5
9 8 10 10 11 11 12 12 12 11 11 10 9 9 10 10 9 9 8 7 7 6 6 6 5 5 4 5 5 5 5 4 5

GFSFLT1_850_dewp_003.txt.gz
Dewpoint
9 5 3 0 -3 -7 -8 -2 -6 3 6 6 -5 -7 0 5 7 10 7 -8 -8 -8 -8 -8 -9 -11 -12 -11 -12 -14 -17 -19 -19
10 7 4 2 -2 -7 -11 -10 -7 -8 -5 -5 -7 -6 1 4 7 7 5 -11 -8 -8 -7 -7 -7 -8 -8 -8 -9 -10 -12 -13 -14
8 7 5 4 2 -0 -4 -9 -11 -9 -7 -7 -7 -6 2 4 7 6 4 -8 -8 -8 -7 -7 -6 -6 -6 -7 -7 -7 -7 -8 -8
0 6 5 8 7 6 1 -4 -9 -12 -9 -8 -7 -9 1 2 6 6 2 -7 -8 -7 -7 -6 -6 -6 -5 -5 -5 -6 -6 -6 -6
1 4 9 9 8 8 5 -1 -7 -10 -10 -8 -8 -8 -4 -1 0 -1 -0 -2 -7 -7 -7 -6 -6 -5 -5 -5 -4 -4 -5 -4 -4
-2 4 2 2 4 5 3 -1 -8 -9 -10 -9 -8 -9 -9 -5 -2 -2 -0 -0 -5 -6 -6 -6 -6 -6 -5 -5 -4 -4 -4 -4 -3
2 1 1 -1 -2 -2 1 -2 -8 -13 -10 -8 -9 -9 -9 -9 -6 -6 -2 -1 -5 -6 -6 -6 -5 -5 -5 -5 -5 -5 -5 -4 -4
-2 -2 -2 -2 -0 -3 -4 -4 -9 -14 -11 -8 -8 -9 -10 -9 -7 -6 -5 -3 -3 -6 -6 -6 -6 -5 -5 -5 -5 -5 -5 -5 -5
-1 -1 -2 -2 -1 -4 -6 -6 -8 -14 -13 -8 -7 -7 -8 -10 -8 -6 -6 -5 -4 -5 -6 -6 -6 -6 -6 -6 -6 -6 -6 -6 -6
2 2 2 -0 -2 -3 -5 -7 -8 -9 -12 -8 -6 -6 -6 -7 -9 -7 -6 -7 -7 -6 -6 -7 -7 -7 -7 -7 -7 -7 -7 -6 -6
2 3 3 3 2 1 -1 -3 -5 -5 -7 -10 -4 -4 -5 -6 -7 -7 -7 -7 -7 -8 -8 -7 -7 -7 -7 -7 -7 -7 -7 -7 -6
4 5 4 4 4 4 3 1 -1 -1 -2 -4 -6 -5 -2 -2 -3 -4 -6 -7 -8 -8 -8 -8 -7 -7 -7 -7 -6 -6 -7 -7 -7
4 4 2 3 5 6 5 4 3 2 2 -1 -1 -0 -0 -0 1 -1 -3 -3 -5 -7 -7 -7 -7 -7 -7 -6 -6 -5 -6 -6 -6
2 2 3 5 6 7 7 7 6 5 5 4 4 2 2 1 1 0 -0 -1 -1 -3 -4 -4 -5 -5 -5 -5 -5 -2 -3 -4 -4
4 5 5 7 8 8 8 8 8 8 7 7 7 6 5 5 5 4 3 3 2 2 1 1 -0 -2 -2 -3 -3 -4 -4 -4 -3
8 8 8 7 8 8 8 9 9 9 9 9 8 8 7 7 7 7 6 5 5 5 4 3 2 2 1 0 0 -0 -2 -3 -5
9 9 9 9 9 10 10 10 10 10 10 9 9 9 9 7 6 5 5 5 6 6 5 5 4 4 5 5 4 1 -1 -1 -3
10 10 10 11 11 11 11 11 11 11 11 11 10 9 8 7 4 4 5 4 4 4 4 3 3 5 5 2 2 1 -1 -1 1
10 10 10 10 11 11 11 12 11 11 11 10 11 10 10 9 8 6 7 7 6 6 5 5 5 5 3 1 0 -0 3 5 5
9 9 10 10 10 10 11 11 10 11 11 11 10 11 11 10 10 9 7 8 7 7 7 6 6 6 6 6 6 4 3 4 5

GFSFLT1_850_dewp_006.txt.gz
Dewpoint
8 5 2 -1 -4 -5 -7 -2 -2 -5 -3 6 -1 -4 1 4 8 8 8 4 -9 -8 -8 -8 -9 -10 -11 -11 -12 -15 -16 -18 -18
7 5 4 1 0 -4 -9 -10 -7 -9 -9 -8 -7 -6 1 3 5 7 6 -1 -7 -7 -7 -7 -7 -8 -9 -9 -9 -10 -12 -13 -15
6 5 4 4 4 1 -4 -8 -11 -11 -9 -9 -7 -6 1 3 3 4 4 -4 -8 -7 -7 -7 -7 -7 -7 -7 -7 -7 -8 -8 -8
1 3 7 9 7 5 3 -1 -6 -11 -11 -9 -8 -7 -2 2 1 -0 -0 -1 -7 -7 -7 -7 -6 -6 -6 -6 -6 -6 -6 -6 -6
-1 4 4 3 8 6 6 3 -2 -7 -11 -11 -8 -7 -7 -1 1 -0 -2 -5 -7 -7 -7 -7 -6 -6 -5 -5 -5 -5 -5 -5 -5
-5 -2 1 -0 -3 -1 0 1 -2 -7 -10 -11 -9 -7 -8 -4 -1 -2 -4 -3 -2 -4 -7 -7 -6 -6 -6 -6 -5 -5 -4 -4 -4
-7 -1 -1 -6 -8 -8 -5 -6 -5 -7 -12 -11 -10 -8 -8 -8 -7 -4 -5 -4 -1 -1 -6 -6 -6 -6 -6 -6 -6 -5 -5 -5 -4
-4 -2 -3 -4 -5 -5 -5 -7 -6 -6 -10 -14 -10 -8 -8 -9 -9 -7 -6 -6 -3 -1 -4 -6 -6 -6 -6 -6 -6 -6 -6 -6 -5
-1 -0 0 -0 -1 -2 -3 -5 -5 -6 -9 -14 -12 -8 -8 -8 -9 -9 -6 -5 -4 -3 -3 -5 -6 -6 -6 -6 -6 -6 -6 -6 -6
1 1 2 2 2 1 0 -1 -3 -5 -6 -10 -13 -10 -7 -6 -6 -10 -9 -6 -5 -4 -4 -3 -4 -6 -6 -7 -7 -7 -7 -7 -7
2 2 3 3 3 3 3 2 2 -0 -2 -3 -5 -7 -6 -5 -5 -5 -6 -7 -6 -5 -5 -6 -4 -2 -2 -3 -6 -6 -6 -6 -6
3 3 3 4 5 5 5 5 5 4 3 1 -0 -3 -6 -5 -3 -4 -5 -5 -5 -5 -5 -5 -5 -5 -2 3 4 3 -1 -4 -5
5 5 5 5 6 6 7 6 6 6 6 5 4 3 2 1 -1 -1 0 0 -1 -2 -3 -5 -5 -6 -5 0 5 7 7 6 2
7 7 6 6 6 7 8 7 8 7 7 7 7 6 6 5 4 3 2 2 2 1 -0 -0 -1 -2 -3 -3 2 5 6 6 6
9 9 9 9 9 9 8 8 9 9 9 8 8 8 8 8 7 7 6 6 5 5 4 3 2 1 2 2 1 -0 -1 1 3
10 11 10 10 11 11 11 10 10 10 10 10 10 9 9 9 9 8 8 8 7 7 6 6 5 5 5 4 4 3 3 3 3
10 11 11 11 11 11 11 11 11 11 11 11 10 9 9 9 9 8 6 3 4 4 4 5 5 5 5 5 5 4 4 5 5
10 11 11 11 11 10 10 11 11 11 10 10 10 10 9 9 9 9 7 7 7 6 5 5 5 4 4 3 3 3 4 4 4
9 9 9 9 10 10 10 10 10 11 10 10 10 10 10 10 9 9 9 9 9 9 8 6 6 6 7 6 5 5 4 3 1
9 9 9 10 10 9 10 10 11 11 10 10 11 11 11 11 10 10 9 9 9 9 9 9 9 7 7 7 7 6 6 6 6

GFSFLT1_850_dewp_009.txt.gz
Dewpoint
11 8 5 2 0 -3 -5 -1 -1 -2 5 4 8 -1 -0 3 4 4 5 4 1 -9 -9 -9 -9 -9 -9 -10 -11 -13 -14 -16 -16
10 6 6 4 2 -1 -6 -10 -7 -3 -8 -7 -5 -3 -3 -1 1 4 4 0 -7 -8 -8 -8 -7 -8 -9 -9 -9 -10 -11 -12 -14
10 8 7 5 3 2 -1 -4 -8 -10 -10 -9 -8 -7 -3 2 3 4 5 3 -4 -8 -8 -8 -7 -7 -7 -7 -7 -8 -8 -8 -9
7 5 5 5 2 1 1 -1 -3 -7 -10 -11 -9 -7 -5 0 3 4 4 1 -2 -8 -8 -7 -7 -7 -6 -6 -6 -6 -7 -7 -7
-0 -2 -1 -1 -3 -2 2 0 -1 -2 -5 -9 -11 -8 -6 -4 1 2 2 1 -1 -1 -6 -7 -7 -6 -6 -6 -6 -6 -5 -5 -5
-6 -7 -4 -3 -5 -4 -2 -1 -0 0 -1 -7 -9 -9 -7 -6 -4 -0 0 0 -3 -4 1 -6 -7 -7 -6 -6 -6 -6 -5 -5 -5
-5 -6 -4 -4 -5 -5 -5 -3 -2 -2 -3 -6 -11 -10 -9 -7 -8 -4 -1 -2 -3 -2 2 -1 -6 -6 -6 -6 -6 -6 -6 -6 -5
-4 -3 -2 -1 -1 -1 -2 -2 -2 -5 -4 -5 -9 -12 -9 -8 -7 -8 -8 -6 -4 -3 2 6 -2 -6 -6 -6 -6 -6 -6 -6 -6
-1 -1 0 1 2 2 2 2 1 0 -2 -4 -6 -12 -12 -9 -8 -8 -8 -8 -5 -4 -3 8 8 0 -5 -6 -6 -6 -6 -6 -6
2 2 3 3 4 4 4 4 4 3 2 -0 -2 -5 -11 -12 -8 -7 -7 -8 -7 -4 -2 8 9 9 8 4 -3 -5 -6 -6 -6
2 3 4 4 5 5 6 6 6 5 5 4 3 1 0 -3 -6 -7 -5 -4 -5 -8 -4 -2 8 9 9 9 9 7 2 -4 -5
3 3 4 5 5 6 6 6 7 7 7 6 6 6 5 4 2 -1 -3 -4 -3 -3 -2 -2 -2 -0 6 9 9 9 8 8 8
5 5 6 6 7 7 7 7 7 7 7 7 7 7 7 7 7 6 5 3 1 -0 -1 -1 -2 -3 -2 5 6 8 8 8 8
8 9 9 10 10 10 10 10 10 9 9 9 9 9 9 9 9 8 8 7 6 6 5 3 3 3 3 2 3 3 4 5 6
10 11 11 11 11 11 11 11 11 11 11 11 10 10 10 10 9 9 9 9 9 8 8 7 6 6 5 5 4 4 3 2 2
11 11 11 11 11 11 11 11 11 11 11 11 10 10 9 9 9 9 9 8 8 8 6 5 7 7 7 7 6 6 5 5 4
11 11 11 11 11 11 11 11 11 11 11 10 10 10 9 9 8 8 8 8 9 8 7 8 7 5 4 4 4 4 5 6 6
9 9 9 9 10 10 10 10 11 10 10 10 11 10 10 9 8 8 8 8 8 8 8 8 8 9 8 7 6 5 5 4 4
6 6 6 7 8 8 8 9 9 10 11 10 11 11 11 10 10 10 9 9 9 9 8 7 7 7 8 9 9 8 6 5 5
1 1 1 1 1 2 3 4 5 8 10 10 11 10 10 10 10 9 9 9 10 10 9 9 9 9 8 7 7 7 7 6 4

GFSFLT1_850_dewp_012.txt.gz
Dewpoint
10 10 6 4 2 -0 -2 -0 -0 -0 1 5 7 7 1 -3 1 2 6 7 5 3 -8 -9 -9 -9 -9 -10 -10 -11 -13 -14 -15
11 7 7 3 1 0 -1 -3 -5 -4 -2 -2 -5 -0 1 -3 -1 0 3 6 3 1 -7 -8 -8 -8 -8 -9 -9 -9 -10 -12 -13
11 7 3 2 3 2 4 2 -1 -4 -7 -9 -9 -7 -3 -6 -2 1 1 4 3 9 2 -7 -7 -8 -8 -8 -8 -8 -8 -9 -9
4 6 4 2 4 10 10 9 6 3 -1 -5 -10 -9 -5 -6 -3 0 0 3 5 6 9 -5 -8 -7 -7 -7 -7 -7 -7 -7 -7
-2 -2 -2 -0 4 10 8 8 6 3 3 1 -5 -9 -8 -5 -6 -3 0 1 3 2 9 4 -6 -7 -7 -6 -6 -6 -6 -6 -6
-4 -5 -6 -4 0 1 3 10 4 2 1 -0 -1 -7 -10 -9 -6 -5 -2 1 2 2 7 9 7 -5 -6 -6 -6 -6 -6 -5 -5
-4 -4 -3 -1 0 2 2 2 2 2 1 -2 -2 -3 -9 -9 -8 -6 -6 -2 2 2 2 8 9 7 -4 -5 -5 -6 -6 -5 -5
-3 -1 0 1 2 3 4 4 4 3 2 0 -2 -3 -4 -11 -11 -8 -6 -6 -4 -1 -1 3 9 9 8 2 -1 -2 -5 -5 -5
-2 -0 1 2 3 3 4 5 5 5 4 4 3 1 -2 -4 -10 -12 -8 -6 -6 -7 -7 -2 8 9 10 9 7 2 -2 -3 -4
1 1 2 3 4 5 5 6 6 6 6 6 5 5 4 2 0 -3 -9 -9 -6 -5 -6 -7 -0 8 9 10 8 8 4 1 0
1 3 4 4 5 5 6 6 6 6 6 6 7 6 6 6 6 5 3 0 -5 -5 -4 -3 -5 -1 8 9 10 9 8 7 6
4 5 6 7 8 9 9 9 9 9 9 9 8 8 8 7 7 7 7 7 6 3 -2 -3 -3 -3 -0 6 8 9 9 9 8
8 8 8 9 10 11 11 11 11 11 11 11 11 11 10 10 9 9 9 8 8 8 7 5 3 1 -0 2 6 7 7 7 8
10 10 10 11 11 11 11 11 11 11 11 11 11 11 11 10 10 10 9 9 9 9 8 8 8 7 6 5 4 5 5 5 5
11 11 11 12 12 12 11 11 11 11 11 11 10 10 10 9 9 8 8 8 7 8 8 8 8 8 9 9 8 7 6 5 5
11 11 11 11 10 10 10 10 10 10 10 11 9 9 8 8 8 7 7 7 7 7 7 8 8 7 6 6 4 5 7 7 7
8 8 8 8 8 9 9 9 10 10 10 10 10 10 10 9 9 9 9 8 8 9 8 8 8 8 8 8 7 8 4 4 4
6 5 5 5 4 4 5 5 4 8 9 10 9 10 10 10 9 9 8 8 9 8 9 9 9 9 9 9 8 8 8 8 7
2 1 1 0 -1 -2 -2 -2 -2 0 2 5 7 9 9 9 9 9 9 9 8 8 8 8 8 9 9 9 9 9 8 8 9
-3 -3 -3 -3 -3 -4 -5 -5 -6 -6 -6 -5 -3 -1 1 3 7 7 7 6 6 6 8 8 7 8 8 9 8 8 9 8 9

GFSFLT1_850_dewp_015.txt.gz
Dewpoint
9 3 2 3 2 0 -1 -1 -0 3 6 6 10 10 10 6 -1 -0 2 5 6 4 9 5 -1 -5 -5 -7 -8 -10 -11 -13 -14
9 5 4 4 3 2 1 -0 -3 -2 2 3 6 6 8 9 -0 -1 -1 1 5 5 9 1 -6 -6 -7 -8 -9 -9 -10 -11 -12
10 7 7 4 3 5 6 7 4 2 -1 -1 8 9 3 8 -2 -2 0 1 4 3 9 7 -3 -6 -6 -7 -7 -8 -8 -9 -9
8 7 6 6 6 10 10 10 10 10 8 3 1 -2 -3 -1 -3 -4 -0 2 3 5 6 10 9 6 -5 -6 -7 -7 -7 -7 -8
4 4 5 7 3 6 10 10 10 10 9 9 4 3 -1 -4 -6 -5 -4 -1 2 4 5 8 9 8 3 -4 -6 -6 -6 -6 -6
1 0 -0 0 0 2 5 8 9 10 9 4 2 1 -0 -3 -7 -8 -7 -5 -1 1 2 9 9 10 9 3 -1 -5 -6 -5 -5
-2 -2 -1 -1 0 1 3 3 4 4 4 3 2 1 -2 -3 -5 -11 -10 -8 -6 -5 -2 1 9 9 9 9 2 1 -2 -5 -5
-3 -2 -1 1 2 3 4 4 5 5 5 5 5 4 3 1 -1 -5 -11 -12 -8 -6 -6 -4 1 7 9 10 9 8 8 5 -1
-0 1 2 2 4 4 5 5 5 6 6 6 6 6 6 5 5 4 2 -3 -11 -10 -7 -7 -7 -5 6 9 8 9 7 3 4
2 3 3 4 4 5 6 7 7 7 7 7 7 7 7 7 7 6 6 6 4 0 -7 -8 -7 -7 -6 3 7 8 8 8 6
5 5 5 6 8 8 9 10 10 10 10 10 10 10 10 10 9 8 7 7 7 7 6 3 -3 -6 -4 2 5 7 5 8 9
8 8 8 9 10 10 11 11 11 11 11 11 11 11 11 11 11 10 10 9 8 8 8 8 7 5 1 1 3 3 2 6 8
10 10 10 10 11 11 11 11 11 10 10 10 10 10 11 10 10 10 9 9 8 8 8 8 8 8 8 7 6 5 3 2 3
10 10 10 10 11 11 11 11 11 10 9 10 9 10 9 9 9 9 8 8 7 7 7 7 7 8 9 9 9 8 7 5 4
10 10 11 11 10 10 9 9 9 9 9 10 10 9 9 8 7 7 7 7 8 7 7 8 8 7 8 8 9 9 9 9 8
8 8 7 7 7 7 7 7 7 7 7 8 9 9 8 8 8 8 9 8 8 8 8 8 9 8 8 8 8 7 8 8 7
3 3 2 1 1 -0 -1 -1 -2 -2 -1 6 7 8 7 8 9 8 7 9 7 9 9 9 8 8 9 8 9 9 8 9 7
1 1 -0 -2 -3 -3 -4 -4 -5 -5 -5 -5 3 6 6 6 4 6 6 6 8 8 6 8 8 8 9 9 9 9 9 9 9
-5 -5 -5 -5 -5 -5 -5 -5 -5 -6 -6 -6 -5 -5 -3 3 2 0 2 3 5 6 5 4 3 3 4 4 5 5 5 8 9
-4 -4 -4 -5 -6 -7 -9 -10 -10 -11 -10 -8 -5 -5 -3 1 3 3 2 3 3 4 3 1 4 7 7 3 3 4 5 7 8

GFSFLT1_850_dewp_018.txt.gz
Dewpoint
11 7 5 4 3 2 -1 -3 1 10 7 7 9 9 10 10 9 7 7 4 10 4 6 9 4 9 5 0 -5 -7 -9 -11 -12
11 10 8 7 4 4 2 1 0 -2 -1 -1 2 8 8 6 9 9 6 8 8 6 8 10 6 -3 2 -6 -5 -8 -9 -10 -11
11 10 10 8 7 7 10 9 9 8 7 4 3 9 10 9 8 9 8 2 0 3 9 9 9 5 -0 -4 -4 -6 -7 -8 -9
8 9 8 8 9 9 9 10 10 10 10 10 9 8 4 5 8 8 8 5 -0 2 6 7 10 10 8 8 6 -1 -5 -7 -7
3 3 4 1 2 0 2 6 10 9 9 9 8 2 0 2 8 8 7 -4 -4 -1 1 4 8 9 10 9 8 2 -4 -4 -6
4 2 1 -0 -1 -0 1 2 4 4 5 5 3 2 3 7 6 5 -1 -11 -9 -6 -4 -1 6 9 9 9 8 7 3 -3 -5
1 1 0 1 1 2 2 3 4 5 8 10 8 8 9 8 7 4 -2 -6 -12 -11 -8 -7 -4 2 8 8 10 9 8 8 -0
3 1 1 1 2 3 5 5 6 8 9 10 10 10 10 9 8 7 5 4 0 -7 -12 -10 -8 -7 -4 5 8 9 9 9 8
4 3 4 4 5 6 6 8 9 9 9 10 10 10 10 10 9 8 6 6 6 5 2 -5 -10 -8 -7 -5 3 8 8 8 8
5 6 7 7 8 9 9 10 10 11 11 11 10 10 10 10 10 10 9 7 7 7 6 6 4 -0 -7 -6 -5 -5 4 8 8
9 9 9 9 9 10 10 10 11 10 11 10 10 10 11 10 10 10 10 10 9 8 8 7 7 7 6 4 -0 -2 -1 4 6
9 9 9 10 10 10 10 11 11 11 11 11 11 10 10 10 10 10 10 10 9 8 8 8 9 9 8 8 7 6 3 -2 -3
9 9 10 10 10 10 11 10 11 11 11 11 10 10 10 10 10 10 10 10 10 9 8 7 7 8 8 9 10 10 9 7 5
10 10 10 11 11 10 10 9 9 8 9 9 8 9 8 9 10 10 10 9 8 8 8 8 8 8 8 8 8 9 10 10 10
9 9 8 6 6 6 5 5 6 7 7 7 7 7 7 7 8 9 9 9 10 10 9 9 9 7 8 8 9 8 8 9 10
3 1 0 -0 -0 -1 -1 0 -0 1 3 2 2 3 5 6 5 8 9 6 7 7 9 8 9 10 9 8 7 8 9 9 9
-2 -3 -5 -5 -5 -5 -5 -4 -4 -0 0 1 1 0 0 0 3 1 -0 2 2 5 7 7 7 8 8 9 9 7 8 8 9
-4 -4 -3 -4 -4 -5 -6 -6 -4 -1 -2 -1 -0 0 1 1 -1 -1 -1 -0 2 1 1 4 5 4 5 6 7 7 5 3 4
-2 -3 -4 -6 -9 -12 -16 -18 -18 -5 -4 -4 -3 -1 -1 -1 -0 -2 -1 -1 1 0 0 1 1 2 2 4 6 7 6 3 4
-3 -5 -8 -12 -17 -25 -31 -32 -28 -8 -6 -5 -4 -2 -2 -2 -1 -0 -4 -5 -5 -4 -3 -2 -0 1 2 2 3 6 7 6 7

GFSFLT1_850_dewp_021.txt.gz
Dewpoint
11 10 10 7 5 3 2 -3 -2 -1 -2 3 7 7 9 9 9 9 8 6 5 10 6 8 7 8 9 9 7 -2 -6 -8 -10
11 11 9 8 6 3 3 1 3 3 0 -2 -3 1 6 7 7 6 9 7 8 9 5 9 10 6 -1 0 -1 0 -4 -8 -9
12 11 10 8 5 6 1 8 9 9 8 7 4 2 0 -3 4 8 7 9 1 -3 -2 7 9 10 8 -2 -4 -6 -6 -8 -8
11 7 6 2 2 4 0 3 9 8 8 8 3 1 -1 -1 -2 4 8 8 4 -5 -3 -1 10 9 10 9 3 -1 -6 -6 -7
4 1 -0 -1 -2 -2 -1 1 2 4 4 5 4 2 2 0 5 7 6 6 -2 -9 -7 -4 -1 10 9 10 10 7 -0 -5 -5
11 10 0 -1 -0 1 2 2 3 4 4 5 8 7 5 7 9 7 6 4 -2 -10 -12 -9 -7 -4 7 8 9 9 7 3 -0
9 2 -1 -1 1 2 3 4 5 5 7 10 10 10 10 10 9 9 7 5 4 1 -4 -12 -11 -8 -6 0 7 8 9 9 8
9 9 8 4 6 5 7 8 9 10 10 10 10 10 10 10 10 9 9 6 5 5 5 4 -1 -11 -11 -8 -6 1 6 8 9
9 9 9 10 10 10 10 10 10 10 10 10 10 10 10 10 10 10 10 9 9 8 8 7 6 5 2 -7 -10 -8 -6 1 7
10 10 10 10 10 10 11 11 11 11 11 11 11 11 11 11 11 11 10 10 10 10 10 10 9 8 7 6 4 -1 -7 -8 -6
11 11 11 11 11 11 11 11 11 11 11 11 11 11 11 10 10 10 10 10 10 10 9 9 9 10 10 10 8 7 6 4 -4
11 11 12 12 12 11 11 11 11 11 11 10 10 10 10 9 9 9 10 10 10 10 10 10 9 8 8 11 12 11 11 10 8
11 12 12 12 11 11 11 10 10 9 9 9 8 8 8 8 8 8 9 9 9 9 10 10 9 9 8 8 9 10 11 11 11
11 11 10 9 9 8 8 6 6 6 5 5 5 5 6 5 5 6 8 8 8 9 9 8 9 8 8 8 8 8 8 9 10
6 4 1 -1 1 1 -2 -1 -1 -1 1 1 1 0 1 -0 4 6 5 7 8 7 5 7 7 9 9 8 8 9 8 9 9
-3 -5 -5 -4 -3 -1 -2 -2 -2 -2 -0 0 -0 -1 -1 0 -0 3 6 6 3 1 2 2 4 6 8 7 5 7 7 7 8
-4 -3 -2 -2 -3 -4 -5 -5 -5 -4 -4 -2 -3 -2 -3 -1 -2 -6 -5 -4 -2 0 2 3 2 2 1 4 5 5 5 5 7
-2 -2 -4 -6 -7 -8 -11 -12 -13 -8 -9 -5 -4 -4 -4 -2 -4 -5 -4 -2 -3 -3 0 1 -2 -1 -2 0 2 3 3 5 7
-4 -5 -6 -8 -11 -15 -22 -20 -21 -9 -6 -9 -8 -8 -4 -2 -2 -5 -6 -6 -7 -13 -9 -8 -8 -5 -2 -0 2 2 3 4 4
-3 -6 -8 -11 -16 -24 -27 -26 -25 -19 -8 -12 -10 -7 -5 -4 -6 -6 -8 -8 -10 -10 -8 -6 -6 -7 -3 -1 2 3 1 1 3

GFSFLT1_850_dewp_024.txt.gz
Dewpoint
11 11 10 7 6 1 -1 -4 -5 -1 0 -3 -1 5 3 1 -4 -1 9 9 3 8 9 8 3 3 7 10 9 7 0 -7 -9
11 11 10 9 6 1 -4 -4 -2 -2 -3 -2 -3 -5 -7 -8 -9 -8 -1 7 9 5 9 2 2 3 8 1 5 2 -5 -6 -9
12 11 8 4 -1 -4 -4 -3 -0 2 1 -1 0 -3 -4 -3 -5 -6 -4 4 6 4 -4 -6 -4 9 7 9 -4 -6 -6 -6 -7
10 8 -1 -4 -5 -5 -3 -1 -0 2 3 4 3 2 1 -0 -2 -4 -4 -4 6 6 -5 -7 -6 -3 2 10 9 3 -5 -5 -4
2 0 -3 -3 -3 -1 -0 1 1 2 2 2 3 6 5 4 2 1 1 1 -1 -1 -9 -13 -11 -7 -2 4 7 9 9 3 -1
10 8 2 -2 -1 0 1 2 3 3 3 5 8 9 7 7 6 6 7 7 5 4 2 -2 -10 -12 -10 -6 4 7 9 10 9
10 9 2 0 1 2 3 4 4 6 6 6 8 9 9 9 9 9 9 8 8 7 6 5 5 2 -6 -11 -8 -1 6 8 9
8 8 8 6 4 4 5 5 6 8 8 9 9 10 10 10 10 10 10 10 10 9 9 9 8 7 6 5 -1 -9 -7 3 5
9 9 9 9 9 8 9 10 10 11 11 11 11 11 11 11 11 10 10 10 10 10 10 10 10 10 10 9 7 6 3 -6 -2
10 10 10 10 10 11 11 11 11 11 11 11 11 11 10 10 10 10 10 10 10 10 10 10 10 10 11 11 11 11 9 9 6
11 10 11 12 12 11 11 11 11 11 11 11 10 9 9 9 9 9 9 9 9 9 9 10 10 10 10 11 10 11 11 11 10
11 11 11 11 11 11 10 10 10 9 9 8 7 8 8 3 3 4 4 6 8 9 9 9 8 8 8 9 10 10 10 10 11
11 11 11 11 10 9 9 8 7 4 4 3 4 4 4 3 2 0 2 6 7 7 8 8 9 8 8 8 8 8 6 8 8
11 11 8 5 5 3 0 -3 -2 -2 -3 -2 -1 -2 -1 -5 -3 1 3 6 7 7 7 5 3 3 4 7 9 9 9 7 6
4 -1 -4 -4 -3 -2 -2 -3 -4 -5 -5 -6 -7 -9 -9 -2 0 -1 2 2 2 4 4 5 -1 1 3 4 6 7 9 8 7
-5 -3 -2 -2 -4 -5 -6 -7 -8 -9 -12 -14 -11 -13 -6 -8 -7 -1 -7 -11 -13 -10 -6 -1 0 2 3 3 3 0 1 4 5
-2 -2 -4 -5 -5 -6 -8 -12 -14 -18 -18 -8 -11 -8 -9 -4 -16 -14 -18 -6 -4 -4 -11 -9 -8 -10 -11 -10 -16 -13 -9 -6 4
-3 -3 -3 -4 -6 -8 -13 -17 -22 -22 -22 -19 -11 -6 -5 -9 -9 -11 -9 -5 -15 -11 -11 -16 -17 -15 -9 -6 -6 -6 -3 1 4
-2 -3 -4 -6 -8 -12 -17 -22 -24 -25 -24 -24 -24 -20 -13 -5 -4 -6 -12 -13 -15 -15 -12 -11 -7 -5 -7 -10 -7 -2 1 1 2
-2 -3 -5 -7 -10 -15 -21 -23 -25 -26 -24 -21 -19 -21 -18 -17 -7 -5 -8 -9 -10 -10 -9 -6 -8 -6 -10 -6 -4 -5 -4 -5 -2

GFSFLT1_850_dewp_027.txt.gz
Dewpoint
11 10 7 3 -0 -6 -7 -7 -9 -8 -5 -5 -8 -8 -4 -6 -5 -5 -1 4 3 4 7 5 6 1 4 9 11 10 9 7 -2
11 11 7 5 -2 -6 -7 -6 -5 -4 -3 -4 -5 -4 -5 -5 -6 -6 -6 1 6 8 9 10 7 1 1 3 5 6 8 1 -3
11 11 8 1 -3 -4 -3 -3 -1 -1 -1 -1 -1 -1 -1 -2 -2 -3 -5 -4 -2 7 10 7 -2 -1 6 11 9 3 -4 -3 -5
9 9 0 -3 -3 -2 -2 -0 0 1 2 2 2 2 3 4 4 2 1 1 0 1 10 4 -5 -7 -5 7 8 10 7 0 -4
1 0 -0 -0 -1 -0 1 1 2 2 3 3 4 7 7 7 7 7 7 6 6 5 9 7 2 -4 -10 -7 5 7 9 10 9
8 5 3 1 -0 0 2 2 4 4 5 6 7 8 8 8 8 9 9 9 9 8 8 7 7 6 5 1 -2 -1 9 9 9
9 8 6 5 5 4 4 5 6 6 7 8 9 10 10 10 10 10 10 10 10 10 10 10 10 10 9 8 7 6 4 8 9
8 7 8 8 8 7 7 7 8 9 10 11 11 11 11 11 11 11 11 10 10 11 10 10 10 10 10 10 11 11 10 9 6
9 9 9 9 9 9 10 10 11 11 11 11 10 10 10 10 10 9 9 9 9 10 10 10 10 10 10 10 10 11 11 11 9
10 10 10 10 11 11 11 11 10 10 10 11 11 11 10 9 9 9 9 9 9 9 9 10 9 10 10 10 10 9 10 11 11
11 10 10 11 11 11 10 10 10 10 10 9 7 4 1 2 2 1 3 5 4 4 7 7 11 10 10 9 7 6 8 8 10
11 11 11 11 10 10 10 10 9 7 1 0 -1 -2 -1 -1 -1 -1 -0 -0 2 5 6 8 8 9 9 10 9 8 7 7 6
11 11 10 10 10 9 7 2 -3 -3 -3 -3 -4 -4 -5 -5 -3 -5 -4 1 3 6 7 6 5 4 3 3 5 7 8 9 9
10 10 9 5 0 -3 -3 -3 -4 -5 -7 -8 -9 -9 -10 -10 -7 -2 1 1 2 2 2 0 0 0 -0 0 1 3 5 6 7
5 -2 -4 -3 -3 -4 -5 -6 -7 -9 -11 -11 -11 -12 -11 -8 -5 -5 -5 -5 -12 -12 -11 -7 -8 -7 -7 -2 -2 -3 -2 -1 -1
-3 -3 -3 -4 -4 -5 -6 -7 -8 -10 -13 -14 -13 -14 -14 -12 -9 -10 -13 -16 -16 -11 -13 -15 -18 -17 -14 -14 -15 -20 -17 -11 -1
-3 -3 -3 -4 -4 -6 -8 -11 -13 -16 -21 -18 -17 -14 -14 -8 -18 -14 -18 -17 -11 -14 -20 -28 -29 -26 -26 -17 -12 -11 -13 -12 -1
-2 -2 -2 -3 -5 -7 -11 -15 -19 -21 -21 -23 -15 -11 -9 -16 -14 -20 -13 -8 -15 -17 -24 -26 -25 -18 -9 -8 -7 -12 -17 -1 1
-1 -1 -2 -3 -6 -10 -15 -19 -22 -24 -24 -24 -22 -17 -15 -9 -7 -11 -19 -16 -16 -21 -20 -18 -15 -7 -13 -11 -7 -9 -5 -4 -2
-1 -2 -3 -6 -10 -14 -19 -22 -24 -25 -23 -21 -21 -20 -19 -17 -9 -9 -12 -12 -13 -17 -13 -16 -9 -11 -8 -14 -17 -11 -8 -6 -5

GFSFLT1_850_dewp_030.txt.gz
Dewpoint
10 8 5 5 1 -2 -5 -5 -6 -5 -3 -3 -6 -6 -6 -4 -5 -5 -5 -3 3 5 9 8 8 6 4 5 10 10 10 9 10
11 10 7 2 -4 -5 -5 -5 -3 -2 -0 1 -0 -1 -1 -1 -1 -1 -2 -3 1 4 10 10 10 10 9 7 9 9 10 10 10
11 10 8 -1 -4 -4 -3 -1 -0 0 2 2 2 3 3 5 6 5 3 0 -1 1 8 10 10 8 9 10 11 11 11 9 9
8 8 2 -2 -2 -1 0 1 1 2 2 3 4 5 7 7 7 7 7 7 6 6 5 10 10 9 6 5 8 11 10 11 11
3 3 2 1 -0 -0 1 2 3 4 5 6 6 7 7 7 8 8 8 9 9 9 8 8 10 9 8 7 5 -1 8 9 9
7 6 5 3 3 3 3 4 5 6 7 7 9 9 10 10 10 10 10 10 10 10 10 10 10 10 9 10 9 9 7 3 8
6 7 6 6 7 6 6 6 7 8 9 10 10 10 10 10 10 10 9 9 10 10 10 10 10 10 10 10 9 10 11 10 9
8 7 7 8 8 8 9 10 10 10 10 10 10 10 10 10 9 9 9 9 9 10 10 10 10 10 10 10 9 10 9 10 11
9 9 9 9 10 10 11 11 10 10 10 10 10 10 10 11 10 9 9 9 9 9 8 8 8 8 9 9 10 10 10 10 10
10 10 10 10 11 11 10 10 10 10 9 9 10 10 9 8 4 3 3 4 7 8 8 7 7 8 9 10 9 9 9 8 6
11 11 11 10 10 10 10 10 9 9 8 8 6 0 -2 -2 -1 -0 -1 -1 -2 -2 0 5 6 7 9 9 8 9 10 9 9
11 11 10 10 10 10 10 9 9 8 0 -3 -3 -3 -4 -4 -4 -4 -3 -3 -4 -0 3 5 6 6 6 6 6 7 7 7 7
10 10 10 9 9 9 8 -0 -3 -3 -4 -6 -7 -8 -9 -10 -10 -10 -7 -2 1 2 1 2 3 2 0 -1 -0 1 2 2 3
10 9 9 7 0 -3 -3 -4 -5 -5 -6 -7 -8 -10 -11 -11 -5 -1 -0 -3 -5 -8 -11 -9 -7 -6 -6 -7 -6 -5 -3 -2 -1
9 1 -3 -3 -3 -4 -5 -5 -7 -9 -10 -11 -11 -11 -13 -10 -14 -12 -10 -11 -12 -15 -14 -8 -11 -14 -20 -23 -18 -14 -11 -7 -4
-3 -3 -3 -3 -4 -4 -5 -7 -9 -11 -12 -13 -12 -14 -14 -14 -9 -12 -15 -21 -23 -17 -10 -17 -27 -30 -33 -32 -31 -29 -24 -14 -6
-2 -2 -2 -2 -2 -4 -7 -9 -12 -16 -20 -21 -16 -17 -15 -10 -14 -15 -21 -21 -22 -22 -21 -28 -30 -30 -29 -27 -25 -28 -25 -17 -6
-2 -1 -1 -2 -4 -7 -10 -13 -16 -19 -22 -22 -15 -16 -12 -17 -16 -21 -18 -22 -26 -28 -29 -30 -29 -27 -26 -19 -21 -19 -20 -10 -3
-1 -1 -2 -4 -8 -10 -15 -19 -21 -22 -22 -21 -19 -17 -15 -15 -13 -16 -23 -21 -24 -24 -25 -24 -22 -23 -18 -18 -16 -18 -11 -8 -5
-1 -2 -5 -9 -11 -16 -20 -22 -22 -21 -21 -19 -18 -19 -19 -19 -11 -11 -15 -24 -26 -26 -22 -21 -21 -17 -15 -13 -13 -10 -9 -6 -4

GFSFLT1_850_dewp_033.txt.gz
Dewpoint
10 7 5 3 -1 -5 -7 -7 -6 -6 -5 -4 -4 -3 -3 -3 -2 -2 -3 -4 -3 5 6 9 8 9 8 9 8 10 10 9 9
11 9 8 3 -3 -4 -4 -4 -3 -2 -2 -1 -0 2 2 3 5 5 5 2 -3 -1 4 10 10 10 11 11 9 9 9 8 9
11 10 9 1 -2 -2 -1 -0 0 1 2 3 3 3 5 7 7 7 7 6 6 5 3 4 10 10 9 6 9 9 10 10 11
10 9 3 -1 -1 -0 1 1 2 2 3 4 4 6 8 7 8 8 8 9 9 9 9 8 9 10 10 8 7 5 3 10 9
5 2 2 1 1 1 2 3 3 5 6 7 7 8 9 10 10 10 10 10 10 10 9 9 10 10 10 9 9 9 9 5 6
7 6 6 5 6 6 6 6 7 7 8 9 10 10 10 10 10 10 10 10 10 10 10 9 10 11 10 10 9 9 9 11 11
8 7 7 7 8 8 8 9 9 10 10 10 10 10 10 10 10 9 9 9 9 9 9 11 11 10 10 10 10 9 10 10 10
8 8 8 8 9 9 10 10 11 10 10 10 10 9 9 10 10 10 10 10 9 8 8 9 9 9 9 9 9 8 10 10 10
9 9 9 9 10 11 10 10 10 10 10 9 9 9 10 10 10 9 7 6 6 7 8 9 9 8 8 8 8 9 10 10 10
10 10 10 10 10 10 10 10 9 9 9 9 8 9 9 5 2 0 2 2 2 1 0 1 2 4 5 6 10 11 10 10 10
11 11 11 11 10 10 10 9 9 8 8 8 7 1 -2 -3 -3 -3 -2 -1 -2 -2 -3 -2 2 4 5 7 7 8 8 9 9
11 11 10 9 9 9 9 9 9 8 3 -3 -3 -4 -6 -7 -8 -9 -9 -9 -7 -4 -2 1 2 3 3 4 4 4 4 4 3
10 10 10 9 9 9 7 -0 -3 -3 -4 -5 -5 -7 -8 -9 -11 -11 -9 -5 -2 -2 -4 -6 -7 -5 -4 -2 -1 -1 -1 -1 -1
10 10 9 7 -1 -3 -3 -4 -5 -6 -7 -8 -9 -10 -11 -11 -10 -5 -2 -3 -8 -11 -11 -12 -12 -10 -10 -11 -13 -16 -15 -12 -9
10 7 -3 -3 -3 -4 -4 -4 -6 -8 -9 -10 -10 -12 -13 -13 -9 -13 -13 -13 -16 -23 -20 -15 -11 -13 -23 -30 -31 -31 -29 -26 -22
-2 -3 -3 -3 -3 -3 -3 -7 -9 -10 -11 -12 -12 -14 -14 -16 -15 -11 -14 -17 -24 -23 -27 -29 -28 -31 -32 -32 -32 -32 -30 -21 -10
-3 -2 -2 -1 -2 -5 -9 -9 -11 -15 -17 -18 -16 -18 -17 -14 -11 -19 -20 -23 -23 -27 -28 -30 -31 -32 -32 -32 -32 -32 -30 -23 -8
-2 -1 -1 -2 -6 -10 -10 -12 -15 -18 -19 -21 -16 -18 -15 -19 -19 -21 -22 -21 -25 -28 -30 -31 -31 -30 -31 -31 -29 -28 -26 -13 -4
-1 -1 -2 -5 -10 -11 -13 -16 -18 -20 -21 -21 -19 -18 -17 -18 -16 -18 -23 -23 -25 -29 -30 -30 -30 -31 -29 -25 -22 -22 -18 -10 -5
-1 -1 -4 -8 -11 -13 -16 -18 -20 -21 -20 -18 -18 -19 -20 -18 -13 -13 -18 -25 -27 -29 -28 -29 -29 -26 -22 -19 -18 -13 -8 -7 -5

GFSFLT1_850_dewp_036.txt.gz
Dewpoint
10 5 5 0 -3 -5 -6 -6 -6 -6 -5 -4 -5 -4 -3 -1 1 2 2 -0 -3 -4 1 3 8 8 9 8 7 7 11 11 10
10 9 7 1 -3 -3 -2 -2 -1 -0 -1 -0 1 2 3 5 7 6 5 3 3 -0 -1 1 9 10 10 10 10 5 4 7 8
11 10 8 1 -0 0 1 1 1 2 3 4 4 4 6 8 8 8 8 8 8 8 8 8 6 9 10 8 4 6 8 9 10
10 10 6 1 2 2 2 2 3 4 5 7 7 7 8 8 9 9 10 10 10 9 9 9 8 9 9 9 9 8 8 5 7
10 5 3 4 4 3 4 5 5 7 7 8 9 9 10 10 10 10 10 10 10 10 10 10 10 9 10 10 10 10 9 9 9
5 6 7 7 7 7 7 7 8 8 9 9 10 10 10 10 10 9 10 9 9 9 9 11 11 11 11 11 10 10 10 10 9
8 8 7 7 8 8 9 9 10 10 10 10 10 10 10 10 10 10 9 9 9 9 8 8 8 10 11 10 10 10 10 10 10
8 7 8 8 9 9 10 10 10 10 10 10 9 9 9 9 10 10 9 9 8 7 7 8 8 8 9 8 8 8 9 9 9
9 9 9 9 10 11 10 10 10 9 9 9 9 8 8 8 8 6 3 1 1 1 1 1 2 3 5 7 7 5 9 10 10
10 10 10 10 10 10 9 9 9 9 8 8 8 8 7 4 -1 -1 -2 -3 -2 -1 -1 -1 -1 -1 0 2 4 6 8 8 10
10 10 11 11 10 9 9 9 8 8 8 8 5 -1 -3 -4 -5 -7 -8 -8 -8 -7 -6 -5 -4 -2 1 3 4 6 6 7 7
10 10 10 9 9 8 8 8 8 3 -2 -3 -4 -5 -6 -6 -8 -9 -10 -10 -8 -6 -5 -4 -3 -2 -2 -1 1 2 3 3 3
10 10 9 9 9 8 5 -2 -3 -4 -4 -6 -7 -8 -9 -10 -11 -11 -9 -6 -3 -3 -5 -9 -10 -9 -10 -11 -12 -9 -7 -5 -3
10 9 9 9 1 -3 -3 -4 -5 -5 -6 -9 -10 -10 -11 -12 -12 -9 -9 -11 -11 -11 -15 -20 -20 -16 -13 -12 -13 -18 -25 -24 -21
10 9 6 -3 -3 -4 -3 -4 -7 -10 -11 -11 -12 -12 -13 -14 -13 -9 -11 -13 -14 -17 -22 -23 -26 -28 -29 -30 -30 -31 -31 -31 -29
9 -2 -3 -3 -2 -2 -6 -11 -11 -11 -12 -13 -13 -16 -15 -17 -16 -14 -12 -13 -21 -22 -23 -26 -29 -30 -31 -32 -32 -32 -32 -32 -27
-2 -3 -2 -1 -1 -5 -10 -11 -12 -13 -14 -16 -18 -20 -21 -15 -12 -22 -22 -21 -20 -24 -27 -29 -30 -31 -32 -32 -33 -33 -33 -29 -15
-3 -2 -1 -1 -4 -7 -11 -12 -13 -15 -18 -21 -20 -20 -19 -19 -20 -22 -22 -23 -26 -27 -28 -29 -29 -30 -31 -31 -31 -30 -29 -25 -5
-2 -1 -1 -2 -5 -9 -12 -13 -15 -19 -22 -21 -20 -19 -19 -19 -18 -21 -24 -24 -26 -27 -27 -28 -29 -29 -29 -29 -28 -27 -27 -15 -5
-1 -1 -1 -3 -6 -11 -13 -15 -19 -22 -21 -19 -19 -20 -22 -21 -14 -16 -22 -25 -25 -26 -27 -27 -26 -27 -26 -24 -23 -21 -8 -6 -5

GFSFLT1_850_dewp_039.txt.gz
Dewpoint
9 3 2 -2 -3 -4 -4 -4 -0 -0 -1 -2 -4 -2 0 3 5 6 5 2 -0 -4 -4 0 3 5 8 8 6 3 9 11 12
9 9 7 1 -1 -1 -1 -0 1 1 -0 3 6 3 4 7 8 7 7 6 6 6 2 1 4 10 10 9 10 10 4 7 10
11 10 8 2 1 1 2 2 2 3 3 4 5 5 7 8 8 8 8 8 8 8 8 8 8 6 8 9 6 4 4 5 6
11 9 7 2 2 2 2 3 4 5 6 7 7 8 8 9 9 9 9 9 9 9 9 9 9 8 8 8 8 8 8 7 6
11 9 3 4 4 3 5 5 7 7 8 8 9 9 9 10 9 9 9 10 9 9 10 10 10 11 11 11 11 11 10 9 9
9 6 6 5 7 7 7 7 8 8 9 9 10 10 10 10 10 10 9 9 9 8 9 9 9 9 10 11 11 11 11 10 10
7 8 7 7 8 8 9 9 10 10 10 10 10 9 9 9 9 10 10 10 10 9 9 9 8 8 8 8 8 8 7 9 10
8 7 7 8 8 9 10 10 10 10 9 9 9 8 8 8 8 8 8 6 4 2 2 2 2 4 6 7 7 7 7 7 7
9 8 8 9 9 10 10 9 9 9 8 9 8 8 8 8 6 3 -1 -1 -2 -2 -0 0 0 -0 -0 0 2 2 4 5 4
10 10 10 10 10 9 9 9 9 8 8 8 8 7 5 -1 -4 -4 -5 -6 -7 -7 -5 -4 -4 -4 -3 -2 -1 0 3 3 5
9 9 9 10 10 9 8 8 8 8 7 5 -1 -4 -4 -5 -5 -6 -7 -8 -9 -8 -8 -7 -6 -4 -2 -1 1 2 3 4 5
10 9 9 9 9 8 8 8 7 0 -3 -4 -5 -6 -7 -8 -9 -10 -11 -10 -9 -7 -5 -5 -6 -7 -8 -8 -8 -8 -8 -7 -5
11 9 9 9 9 9 6 -2 -4 -4 -5 -6 -8 -10 -11 -11 -11 -11 -9 -6 -4 -6 -8 -12 -17 -19 -20 -19 -16 -13 -12 -14 -15
10 9 9 9 8 -3 -3 -4 -4 -7 -11 -13 -12 -12 -12 -13 -12 -11 -10 -11 -13 -14 -15 -17 -21 -24 -25 -27 -29 -30 -30 -27 -26
10 10 9 5 -3 -3 -2 -4 -10 -12 -13 -13 -13 -14 -15 -15 -14 -11 -10 -14 -13 -14 -20 -22 -24 -26 -28 -30 -31 -31 -32 -32 -31
10 9 3 -3 -3 -1 -4 -8 -11 -13 -13 -14 -16 -19 -18 -21 -18 -16 -16 -21 -21 -21 -20 -24 -28 -28 -29 -30 -30 -30 -31 -32 -31
9 3 -3 -3 -1 -3 -5 -9 -12 -13 -14 -18 -20 -22 -21 -14 -18 -20 -21 -22 -23 -25 -26 -27 -26 -26 -26 -27 -28 -28 -29 -29 -28
3 -3 -2 -1 -1 -3 -5 -9 -12 -14 -18 -21 -22 -20 -18 -20 -21 -23 -23 -24 -26 -25 -25 -25 -27 -27 -28 -28 -29 -29 -29 -29 -20
-3 -2 -1 -0 -1 -4 -7 -10 -14 -18 -21 -22 -21 -20 -21 -19 -16 -23 -22 -23 -24 -24 -25 -26 -26 -26 -26 -27 -27 -27 -28 -23 -5
-2 -1 -1 -1 -2 -5 -8 -13 -17 -20 -21 -20 -20 -22 -23 -23 -18 -15 -20 -22 -22 -23 -24 -24 -25 -25 -25 -24 -25 -24 -11 -6 -5

GFSFLT1_850_dewp_042.txt.gz
Dewpoint
4 4 -0 -3 -3 -4 -3 2 6 7 6 3 -1 -1 1 5 11 10 9 3 2 -2 -5 -1 1 4 6 9 7 5 2 10 11
9 9 4 -1 -1 -1 -3 -3 -2 -2 -2 2 7 9 4 8 11 11 9 8 6 6 5 4 5 4 9 9 9 10 8 5 9
10 10 7 0 1 1 2 2 2 3 3 4 4 5 6 9 11 9 9 8 7 7 7 7 8 7 6 8 8 7 5 4 2
11 10 7 1 1 2 2 3 4 5 6 6 7 7 8 9 11 9 11 9 9 9 9 10 10 10 10 9 8 9 9 8 8
10 9 5 3 3 3 4 5 6 7 7 7 8 9 9 11 11 11 9 9 9 10 10 9 9 10 11 11 12 12 11 10 10
11 8 3 4 6 6 6 7 7 8 9 9 9 10 11 11 11 11 9 9 9 9 8 9 9 8 7 8 9 11 11 10 11
7 5 6 6 7 8 8 8 9 10 11 11 10 9 9 9 8 8 8 8 8 7 7 5 4 4 6 8 8 8 7 7 6
7 8 8 8 8 10 9 10 10 10 9 9 9 8 8 8 8 7 6 2 0 -1 -1 -0 -0 -0 0 1 3 3 4 4 3
10 10 8 8 9 10 10 10 9 9 8 8 8 8 7 7 5 -0 -4 -4 -4 -4 -2 -2 -2 -2 -1 -0 -1 -1 -1 -0 1
10 10 10 10 10 10 9 9 9 9 8 8 8 6 1 -3 -4 -5 -5 -6 -7 -7 -7 -7 -7 -7 -7 -5 -4 -3 -1 0 2
9 9 9 9 9 9 9 8 8 8 7 3 -3 -4 -5 -6 -7 -8 -9 -9 -9 -9 -9 -8 -7 -6 -5 -4 -4 -3 -3 -1 -1
9 9 9 9 9 9 8 8 8 1 -4 -5 -5 -7 -8 -10 -10 -11 -10 -10 -9 -8 -6 -5 -7 -11 -14 -17 -18 -19 -17 -14 -10
10 10 9 9 9 9 8 1 -4 -4 -6 -11 -13 -13 -13 -12 -12 -11 -10 -8 -6 -8 -11 -13 -15 -17 -20 -23 -25 -26 -27 -27 -28
10 10 9 9 9 7 -3 -3 -3 -7 -11 -14 -13 -14 -14 -13 -13 -11 -11 -11 -11 -12 -14 -14 -17 -21 -24 -26 -28 -29 -29 -30 -30
11 10 9 9 5 -3 -3 -2 -4 -8 -12 -14 -15 -17 -17 -16 -14 -12 -10 -14 -18 -18 -18 -20 -23 -25 -27 -27 -27 -27 -28 -28 -28
11 10 9 5 -3 -2 -1 -2 -5 -10 -13 -15 -15 -19 -19 -21 -17 -14 -14 -16 -20 -21 -23 -25 -26 -25 -25 -25 -26 -26 -27 -27 -28
11 9 6 -3 -2 -1 -1 -3 -6 -10 -14 -18 -14 -11 -12 -10 -14 -16 -21 -20 -22 -23 -25 -24 -25 -25 -26 -26 -26 -26 -27 -27 -27
9 6 -2 -2 -1 -1 -1 -4 -7 -12 -16 -20 -19 -13 -12 -13 -15 -17 -18 -20 -21 -22 -23 -24 -24 -24 -25 -26 -26 -27 -27 -28 -28
5 -1 -3 -2 -1 -1 -2 -5 -9 -15 -19 -19 -20 -20 -21 -15 -15 -14 -13 -14 -15 -14 -17 -22 -23 -24 -24 -24 -24 -26 -28 -30 -21
1 -2 -2 -1 -1 -1 -3 -6 -13 -18 -20 -20 -20 -22 -20 -15 -12 -13 -14 -14 -13 -13 -13 -13 -15 -13 -13 -12 -12 -10 -8 -7 -5

GFSFLT1_850_dewp_045.txt.gz
Dewpoint
5 3 -1 -3 -4 -4 8 10 11 9 10 7 -1 -3 -1 8 11 11 11 10 6 5 -1 -3 -2 1 2 6 6 7 8 2 9
9 7 2 -2 -2 -4 -5 -4 -2 -4 -4 -4 -2 -0 3 6 11 11 11 11 7 7 6 7 7 7 6 7 10 8 10 6 2
9 9 4 -1 -0 0 1 1 1 2 3 3 4 4 6 10 11 11 11 9 8 8 7 9 10 10 11 9 6 7 8 7 5
10 10 6 1 1 1 2 2 3 4 6 6 7 7 7 7 11 11 11 10 9 9 10 10 10 9 10 11 12 11 9 9 9
11 10 5 2 2 2 4 4 5 6 7 7 7 8 9 10 11 11 11 9 9 9 9 8 7 8 8 7 7 10 11 12 12
10 9 5 3 4 5 6 7 7 7 9 9 9 9 10 10 10 10 10 8 9 9 9 9 8 7 5 5 6 6 7 9 9
12 8 4 5 6 7 7 8 9 10 11 10 9 9 8 8 8 7 6 6 5 4 2 0 -1 -1 0 1 1 1 3 4 4
5 7 6 7 7 10 10 10 11 9 9 8 8 7 6 6 6 5 3 -1 -3 -2 -1 -2 -1 -1 0 1 0 -1 -0 -0 -0
10 10 11 10 10 11 11 10 9 9 9 8 8 7 7 6 3 -1 -3 -4 -5 -5 -4 -4 -4 -4 -4 -4 -5 -6 -5 -4 -3
10 10 10 10 10 10 9 9 9 8 7 7 5 1 -3 -4 -4 -4 -6 -6 -7 -7 -7 -7 -8 -8 -8 -7 -7 -5 -4 -3 -1
11 11 10 9 9 9 9 8 8 7 6 1 -4 -5 -6 -7 -8 -8 -7 -9 -10 -10 -10 -10 -9 -7 -6 -6 -9 -12 -15 -16 -17
9 9 8 8 9 9 9 8 7 4 -4 -4 -8 -12 -13 -13 -11 -11 -5 -8 -10 -10 -9 -7 -7 -9 -12 -16 -18 -22 -23 -24 -25
9 9 9 9 9 8 8 6 -2 -3 -5 -10 -13 -14 -14 -13 -11 -10 -8 -9 -7 -10 -11 -12 -14 -14 -15 -19 -23 -25 -26 -27 -28
9 9 10 9 9 9 5 -3 -2 -4 -7 -12 -14 -14 -15 -13 -12 -7 -11 -12 -11 -11 -15 -20 -19 -20 -22 -25 -26 -26 -26 -26 -26
10 10 10 9 9 7 -3 -2 -2 -4 -7 -12 -14 -15 -18 -15 -13 -10 -11 -11 -14 -16 -19 -21 -23 -25 -25 -24 -25 -25 -26 -26 -26
11 11 10 9 8 -3 -3 -2 -3 -4 -8 -12 -14 -11 -14 -16 -12 -12 -10 -9 -13 -16 -17 -21 -23 -23 -24 -24 -25 -25 -26 -26 -26
11 11 10 9 -1 -3 -1 -1 -3 -4 -8 -15 -12 -9 -10 -9 -12 -8 -13 -16 -14 -13 -17 -21 -22 -23 -23 -23 -25 -25 -26 -27 -27
11 10 9 4 -3 -2 -1 -1 -3 -6 -10 -16 -18 -10 -10 -11 -13 -14 -12 -16 -12 -15 -17 -18 -19 -20 -22 -22 -22 -23 -24 -25 -26
11 10 6 -2 -2 -1 -1 -1 -3 -7 -14 -16 -18 -19 -19 -12 -13 -13 -12 -12 -14 -13 -13 -15 -18 -19 -19 -18 -17 -16 -18 -22 -13
10 7 1 -2 -2 -1 -1 -1 -4 -9 -16 -19 -19 -19 -16 -13 -11 -10 -13 -14 -13 -13 -12 -12 -12 -14 -13 -13 -13 -10 -8 -6 -5

GFSFLT1_850_dewp_048.txt.gz
Dewpoint
1 -3 -6 -7 -7 -2 10 9 10 8 8 8 -2 -6 1 10 11 11 11 9 7 6 5 6 5 5 5 3 4 5 9 9 1
7 3 -2 -3 -6 -6 4 4 4 3 -3 -6 -2 1 5 10 11 11 10 10 8 7 8 8 10 10 10 9 7 7 5 9 3
8 6 0 -1 -1 -1 -1 -1 -1 0 1 2 3 4 6 10 11 10 11 11 9 9 9 10 10 10 10 10 11 10 8 10 7
10 9 2 -0 0 1 1 1 2 3 4 5 6 6 7 11 11 9 11 10 9 9 9 9 8 7 7 8 8 10 11 11 11
11 10 3 1 1 1 2 3 4 5 6 7 7 8 10 10 10 10 10 10 8 9 8 8 8 8 7 6 6 6 6 10 11
11 9 3 1 2 3 4 5 6 8 10 10 8 10 10 9 9 9 9 8 6 5 5 4 3 2 0 -0 -1 1 3 4 6
10 10 6 4 4 6 6 7 9 10 10 9 8 8 7 7 7 6 5 4 2 1 -1 -2 -2 -1 -1 -1 -2 -2 -1 -1 -1
11 9 4 6 6 9 9 11 10 9 9 8 8 6 6 6 6 4 2 -2 -4 -4 -3 -3 -3 -3 -2 -3 -4 -5 -5 -5 -5
7 8 10 9 10 11 10 10 10 8 8 8 7 7 5 2 1 -3 -4 -4 -5 -5 -5 -5 -6 -6 -7 -8 -9 -9 -9 -8 -6
10 10 10 10 10 10 10 9 8 8 7 6 3 -3 -5 -5 -6 -7 -7 -8 -8 -8 -8 -8 -9 -10 -10 -8 -7 -7 -8 -10 -12
10 10 10 10 9 9 9 9 8 6 4 -1 -4 -5 -7 -10 -11 -11 -11 -10 -10 -10 -10 -10 -10 -8 -7 -8 -11 -15 -18 -20 -22
11 10 9 9 8 9 9 9 8 3 -4 -4 -7 -11 -13 -14 -13 -10 -11 -10 -11 -11 -10 -9 -10 -12 -14 -15 -15 -17 -22 -24 -25
10 9 9 9 9 8 8 7 2 -3 -3 -5 -9 -12 -14 -15 -12 -11 -10 -11 -11 -11 -12 -13 -16 -19 -18 -18 -21 -25 -25 -25 -26
9 9 9 9 9 8 8 3 -3 -2 -2 -5 -9 -12 -15 -16 -13 -12 -11 -11 -12 -11 -14 -17 -19 -22 -24 -24 -24 -24 -25 -25 -25
9 9 9 9 9 9 7 -3 -2 -2 -2 -5 -11 -13 -15 -18 -17 -14 -12 -13 -15 -15 -16 -17 -20 -22 -23 -23 -24 -24 -25 -25 -25
9 10 10 10 9 9 -2 -3 -1 -1 -2 -5 -11 -14 -12 -13 -12 -14 -12 -12 -12 -16 -17 -19 -20 -21 -21 -22 -22 -23 -24 -24 -25
10 10 10 10 9 6 -3 -2 -1 -1 -3 -7 -11 -12 -11 -10 -9 -13 -13 -12 -15 -16 -16 -16 -18 -18 -19 -21 -22 -22 -22 -23 -24
11 11 11 10 9 1 -2 -1 -1 -1 -3 -8 -12 -15 -10 -12 -15 -13 -12 -14 -14 -14 -14 -16 -16 -17 -18 -19 -20 -19 -20 -19 -14
11 11 11 10 7 -2 -2 -1 -1 -2 -4 -8 -14 -18 -19 -19 -18 -15 -13 -13 -12 -13 -16 -16 -17 -17 -18 -17 -16 -16 -16 -11 -7
10 10 10 8 1 -2 -2 -1 -1 -2 -6 -11 -16 -18 -18 -18 -14 -14 -17 -18 -17 -19 -18 -17 -16 -15 -14 -13 -13 -13 -11 -8 -5

GFSFLT1_850_dewp_051.txt.gz
Dewpoint
-5 -6 -7 -8 -5 9 10 11 11 11 10 9 -3 -5 7 10 10 11 10 9 7 7 10 6 8 8 8 6 5 6 3 9 6
-2 -5 -5 -8 -8 0 5 4 4 3 -2 -5 0 2 9 10 10 11 9 9 9 9 10 10 10 10 11 11 11 8 4 4 6
2 -3 -4 -3 -4 -5 -5 -4 -3 -2 1 3 3 5 9 11 10 10 10 10 10 9 10 10 10 9 9 8 9 12 11 10 10
7 1 -2 -1 -1 -0 -0 0 1 3 4 5 5 7 10 11 10 10 10 10 9 8 8 8 7 6 7 6 6 7 9 11 12
10 6 -0 -0 -0 0 1 2 4 5 5 6 7 9 10 10 9 10 9 9 9 6 6 7 7 7 5 3 2 4 5 6 8
11 9 0 1 1 2 4 5 6 8 9 8 10 9 9 9 9 9 9 8 6 4 3 2 1 0 -0 -1 -1 -1 -1 -1 1
10 8 3 2 3 4 5 7 8 9 10 9 8 8 7 7 8 6 5 4 2 -0 -2 -2 -1 -0 -1 -2 -2 -3 -3 -3 -3
10 8 4 4 5 6 8 8 9 8 9 8 8 7 6 6 5 5 4 -0 -3 -0 -3 -2 -2 -2 -3 -5 -7 -8 -9 -9 -9
10 8 5 6 8 10 9 9 10 9 8 8 7 6 6 2 -1 -3 -5 -5 -5 -5 -6 -6 -6 -7 -8 -9 -9 -9 -7 -7 -8
8 7 9 8 10 10 10 10 9 8 7 5 3 -2 -5 -6 -8 -9 -10 -9 -9 -8 -8 -8 -9 -10 -9 -8 -8 -9 -12 -15 -17
6 9 10 9 10 10 10 10 9 8 5 3 -3 -4 -7 -11 -14 -14 -13 -12 -10 -10 -10 -10 -10 -9 -9 -12 -14 -15 -15 -16 -20
10 10 10 10 10 10 9 9 8 6 0 -3 -5 -7 -11 -13 -15 -15 -14 -12 -11 -11 -12 -11 -12 -13 -17 -19 -18 -18 -21 -24 -24
11 10 10 10 9 8 8 8 8 2 -3 -3 -5 -8 -12 -15 -15 -15 -14 -13 -12 -13 -14 -14 -16 -18 -20 -22 -24 -23 -23 -24 -24
11 11 10 9 8 8 8 7 1 -3 -2 -2 -4 -8 -12 -16 -16 -15 -15 -15 -14 -15 -16 -17 -19 -20 -21 -23 -23 -22 -23 -23 -24
11 11 9 9 9 8 8 6 -3 -2 -1 -2 -3 -8 -13 -14 -15 -15 -15 -16 -15 -16 -16 -18 -20 -20 -20 -21 -22 -22 -22 -21 -21
11 10 9 9 9 9 8 4 -3 -1 -1 -2 -5 -8 -11 -12 -11 -14 -14 -14 -14 -15 -16 -17 -16 -18 -18 -19 -20 -21 -21 -21 -18
11 10 9 9 10 9 8 1 -3 -1 -0 -1 -4 -11 -9 -11 -10 -12 -14 -13 -12 -14 -15 -15 -16 -18 -18 -19 -19 -19 -19 -19 -9
11 11 10 10 10 10 8 -1 -2 -1 -0 -2 -4 -12 -13 -14 -16 -14 -10 -9 -13 -14 -15 -14 -17 -18 -18 -19 -18 -18 -17 -17 -6
11 12 10 10 10 9 6 -1 -2 -1 -1 -1 -6 -11 -15 -18 -18 -16 -15 -14 -15 -15 -15 -17 -19 -19 -18 -17 -17 -16 -16 -13 -5
12 11 10 10 10 7 1 -2 -1 -1 -1 -3 -8 -13 -17 -18 -18 -17 -17 -17 -18 -18 -19 -19 -20 -19 -17 -16 -14 -13 -11 -8 -6

GFSFLT1_850_dewp_054.txt.gz
Dewpoint
-8 -9 -8 -3 8 10 11 11 11 11 10 9 -2 1 8 10 10 10 9 8 7 7 8 8 10 10 10 10 7 7 4 7 8
-7 -7 -8 -7 6 8 10 11 10 10 2 -5 -3 4 10 9 10 10 10 9 10 11 10 10 10 10 11 10 11 11 7 4 6
-5 -5 -6 -7 -3 5 3 -0 -3 -4 -1 2 3 9 10 10 10 10 10 9 9 8 8 9 10 9 8 9 9 11 12 11 11
-1 -4 -3 -2 -2 -3 -2 -1 0 3 4 5 6 8 10 10 10 9 9 9 10 9 7 8 7 8 9 7 6 7 8 10 11
5 -1 -1 -1 -0 0 1 2 3 4 5 6 9 10 10 9 9 9 9 9 9 7 4 6 9 9 4 2 0 -0 1 4 6
9 4 -1 -0 0 2 3 4 5 6 7 7 9 9 9 9 9 9 9 8 6 4 3 4 2 1 0 -0 -0 -1 -1 -2 -1
10 7 0 1 2 4 5 5 7 8 8 8 8 8 7 7 7 7 6 5 4 1 0 -0 1 0 -0 -1 -3 -4 -5 -6 -7
9 8 4 2 4 5 6 6 8 8 9 8 8 7 5 5 5 5 4 3 -2 4 -1 -1 -1 -2 -3 -6 -8 -9 -9 -9 -9
8 8 4 4 5 7 8 9 9 8 8 8 8 7 5 4 2 -0 -4 -5 -3 -2 -5 -4 -5 -7 -9 -10 -10 -8 -8 -10 -13
8 9 5 6 7 9 9 9 9 9 8 7 5 3 -1 -5 -6 -8 -10 -11 -9 -8 -7 -7 -10 -10 -9 -9 -10 -12 -14 -15 -16
8 8 7 8 8 9 10 10 10 9 8 5 2 -3 -5 -8 -11 -12 -13 -12 -11 -9 -10 -11 -11 -10 -12 -14 -17 -17 -17 -18 -20
9 6 8 9 9 9 10 10 10 9 7 3 -3 -5 -7 -10 -13 -14 -13 -12 -11 -11 -11 -11 -13 -14 -18 -20 -21 -21 -23 -23 -23
9 8 9 9 10 10 10 9 9 8 6 -3 -3 -6 -9 -12 -14 -14 -13 -12 -11 -12 -13 -14 -16 -17 -18 -20 -21 -19 -21 -22 -23
9 9 10 10 10 10 9 8 8 7 -2 -2 -3 -5 -9 -12 -15 -16 -15 -13 -13 -14 -15 -16 -18 -19 -20 -20 -20 -20 -20 -22 -22
10 10 10 10 10 10 8 8 8 1 -2 -2 -3 -5 -8 -12 -14 -14 -14 -15 -13 -14 -14 -16 -17 -17 -18 -19 -19 -20 -20 -21 -20
10 11 11 11 10 9 8 8 8 -3 -2 -1 -3 -5 -9 -10 -12 -11 -13 -12 -12 -13 -15 -16 -16 -16 -18 -19 -19 -20 -21 -21 -20
10 10 11 11 10 9 9 9 8 -3 -2 -1 -3 -6 -7 -8 -11 -10 -12 -12 -11 -12 -14 -15 -15 -15 -19 -19 -20 -21 -20 -21 -15
10 10 11 11 10 9 9 9 7 -3 -2 -1 -2 -6 -8 -10 -11 -13 -13 -11 -9 -11 -14 -14 -15 -17 -19 -20 -20 -20 -21 -20 -8
9 10 11 11 10 9 10 9 3 -2 -1 -1 -2 -4 -7 -13 -16 -14 -13 -11 -12 -14 -15 -16 -18 -18 -20 -20 -19 -20 -19 -13 -5
9 8 11 11 11 10 10 8 4 -1 -1 -1 -2 -6 -8 -12 -16 -17 -16 -15 -15 -17 -18 -18 -19 -20 -20 -20 -21 -20 -18 -14 -6

GFSFLT1_850_dewp_057.txt.gz
Dewpoint
-8 -8 -7 6 11 10 13 11 11 11 10 9 -2 5 8 9 8 8 8 8 9 9 10 11 11 11 12 12 10 7 8 5 9
-9 -9 -8 2 7 10 10 11 11 10 6 -4 -1 8 9 9 9 9 8 11 11 11 11 9 9 9 9 9 10 11 11 7 7
-8 -8 -9 -4 5 8 9 9 7 -0 -1 1 2 8 8 9 9 9 9 9 9 8 7 7 8 8 9 10 10 11 12 12 12
-6 -5 -6 -6 -1 3 -1 -2 -1 2 3 4 6 7 9 9 9 9 9 9 8 7 4 6 8 9 8 6 5 5 7 9 11
-4 -4 -2 -2 -1 -1 -0 1 3 4 5 5 6 8 9 9 9 9 9 9 9 6 3 6 8 7 2 -1 -1 -2 -1 0 4
1 -2 -1 -1 0 1 2 3 4 5 6 6 8 9 9 9 9 9 9 8 5 4 2 2 2 -0 -1 -1 -2 -2 -3 -3 -3
6 2 -1 -0 1 2 3 5 6 7 7 7 8 8 8 8 8 7 7 5 5 4 -0 -0 -1 -1 -2 -3 -5 -6 -8 -9 -9
9 7 0 1 2 3 4 5 8 9 8 8 7 7 7 6 6 5 5 4 5 3 -5 -4 -4 -3 -5 -8 -10 -10 -10 -10 -9
9 8 5 2 4 5 6 7 8 8 9 8 8 7 6 5 3 1 -3 -5 -2 -1 -5 -6 -6 -7 -9 -10 -9 -9 -10 -12 -14
9 7 6 4 5 6 8 8 8 9 9 8 7 5 3 -1 -5 -7 -10 -12 -10 -8 -7 -7 -9 -10 -10 -10 -12 -15 -16 -16 -16
8 8 8 6 6 8 9 9 9 9 9 8 6 3 -1 -5 -8 -11 -13 -13 -11 -10 -9 -10 -11 -10 -12 -14 -18 -20 -21 -22 -22
8 9 8 8 8 9 10 10 10 10 9 8 4 -2 -4 -7 -10 -13 -13 -13 -12 -11 -11 -12 -13 -14 -16 -17 -16 -16 -21 -21 -22
8 9 7 8 9 9 10 10 10 9 9 8 1 -3 -5 -8 -11 -14 -14 -13 -12 -12 -13 -14 -16 -17 -19 -20 -20 -19 -19 -21 -22
9 9 8 8 10 9 10 10 9 9 8 6 -3 -3 -4 -8 -11 -14 -15 -14 -14 -14 -14 -15 -17 -18 -18 -18 -19 -19 -19 -20 -20
11 10 9 9 10 10 10 10 9 8 6 -2 -2 -3 -5 -7 -11 -13 -13 -13 -14 -14 -14 -14 -16 -16 -16 -17 -19 -19 -20 -21 -20
10 11 9 10 10 10 10 10 8 8 5 -3 -2 -3 -5 -7 -10 -11 -11 -12 -11 -13 -13 -14 -15 -16 -16 -17 -19 -20 -21 -21 -18
11 10 10 10 10 10 10 10 8 8 5 -3 -2 -4 -5 -7 -9 -10 -10 -10 -11 -11 -12 -13 -15 -15 -16 -18 -19 -20 -21 -21 -18
11 10 9 10 11 11 11 10 9 8 6 -3 -2 -4 -5 -7 -8 -9 -10 -10 -11 -10 -10 -13 -14 -16 -18 -18 -20 -21 -21 -21 -12
9 9 8 9 10 11 11 10 9 9 5 -2 -2 -1 -3 -7 -10 -11 -12 -12 -11 -10 -12 -13 -16 -18 -18 -19 -20 -20 -21 -21 -11
8 8 8 9 11 11 11 9 9 9 4 -1 -1 -2 -3 -5 -9 -14 -13 -13 -13 -13 -14 -17 -17 -18 -20 -20 -21 -21 -22 -22 -22

GFSFLT1_850_dewp_060.txt.gz
Dewpoint
-11 -10 -3 12 10 10 13 13 11 11 10 9 -0 3 7 7 7 7 9 11 11 11 11 11 11 12 12 10 11 10 9 7 7
-10 -10 -7 7 9 13 12 11 11 11 9 -1 -2 7 8 8 9 8 11 11 11 10 9 8 8 9 10 10 11 12 12 11 11
-9 -10 -8 1 8 9 11 10 10 9 -3 -2 5 9 9 9 9 8 9 10 9 8 6 6 7 7 8 9 8 11 12 12 12
-7 -9 -8 -3 2 6 6 5 0 -2 2 3 5 9 9 9 9 9 9 9 8 6 5 8 10 8 7 5 3 3 3 7 9
-6 -5 -5 -4 -1 -1 -3 -2 1 3 4 4 7 8 9 9 9 9 9 9 7 5 5 5 6 3 0 -2 -2 -2 -2 -2 -1
-4 -3 -2 -1 -1 -1 0 2 4 5 5 6 7 8 9 9 9 9 8 7 5 6 2 1 -0 -2 -2 -3 -3 -4 -5 -5 -6
2 -2 -1 -0 1 1 3 5 5 6 6 6 8 8 8 8 8 7 6 5 7 4 -2 -2 -2 -4 -5 -6 -8 -9 -11 -11 -11
8 5 -0 0 1 3 4 5 6 7 7 8 8 7 7 6 5 5 4 3 6 -2 -5 -7 -7 -6 -8 -10 -12 -11 -11 -10 -11
9 8 1 2 2 4 5 7 8 8 8 8 8 7 7 5 4 1 -3 -4 2 -4 -7 -10 -10 -10 -11 -12 -11 -12 -13 -15 -16
7 9 6 3 3 4 6 7 8 8 8 8 8 7 4 2 -3 -6 -9 -10 -9 -8 -10 -10 -10 -12 -11 -12 -15 -17 -20 -21 -22
6 8 7 6 4 5 7 9 9 9 9 8 8 6 3 -2 -5 -9 -11 -13 -12 -11 -10 -11 -12 -12 -15 -16 -18 -18 -20 -21 -22
5 8 8 8 6 6 8 9 9 9 9 9 8 5 -1 -4 -7 -10 -13 -13 -12 -11 -11 -12 -14 -16 -17 -18 -19 -20 -21 -21 -21
3 7 9 9 8 8 9 10 10 10 9 9 8 4 -3 -5 -8 -11 -13 -13 -13 -12 -12 -13 -15 -17 -19 -20 -20 -20 -20 -20 -21
4 6 9 9 8 9 9 10 10 10 9 8 8 1 -3 -5 -8 -11 -13 -13 -12 -13 -14 -15 -15 -17 -18 -18 -18 -19 -20 -20 -21
9 7 9 9 7 9 10 10 10 9 9 8 7 -3 -3 -4 -7 -10 -12 -13 -13 -13 -14 -14 -15 -17 -17 -17 -18 -19 -20 -20 -21
10 9 10 9 8 8 10 10 10 9 9 7 3 -3 -3 -4 -6 -9 -11 -11 -12 -11 -12 -13 -14 -15 -16 -17 -18 -19 -19 -20 -21
9 10 10 10 9 9 10 10 10 10 8 7 3 -4 -4 -3 -5 -8 -9 -10 -10 -10 -11 -12 -13 -14 -16 -17 -18 -19 -20 -21 -21
9 9 9 8 10 9 10 10 10 10 9 8 2 -3 -2 -4 -5 -7 -8 -9 -9 -10 -10 -10 -12 -14 -16 -17 -18 -19 -20 -21 -20
9 9 8 8 10 10 10 10 10 10 9 8 5 -2 -3 -5 -5 -6 -7 -8 -10 -10 -10 -10 -12 -14 -17 -17 -19 -20 -20 -21 -22
8 8 8 8 9 10 10 10 10 10 9 9 7 -1 -2 -3 -5 -9 -7 -10 -11 -11 -10 -11 -13 -16 -17 -18 -19 -20 -21 -21 -22

GFSFLT1_850_dewp_063.txt.gz
Dewpoint
-9 -7 11 8 3 6 10 13 12 10 10 8 -3 5 6 6 6 8 10 11 12 11 10 10 12 12 11 10 12 11 10 8 6
-8 -6 11 10 9 12 13 12 10 11 10 2 0 7 7 8 7 10 11 11 10 9 8 7 9 10 10 10 11 12 12 12 12
-8 -8 -3 6 9 13 12 11 11 10 6 -4 3 7 8 8 7 7 9 10 8 6 3 8 8 6 7 8 8 10 11 11 11
-8 -8 -2 4 7 10 10 10 9 4 -2 -1 4 8 8 8 8 7 8 9 6 5 8 9 8 7 4 -0 -1 1 1 4 7
-6 -7 -5 2 5 6 5 2 -2 -1 2 4 7 8 9 9 8 8 8 7 5 5 4 4 -0 0 -1 -2 -3 -3 -4 -3 -3
-4 -4 -4 -2 2 0 -2 -1 2 3 4 5 6 8 9 9 9 9 8 7 8 6 1 -0 -2 -2 -4 -5 -6 -7 -8 -9 -9
-3 -2 -1 -1 -1 -0 1 3 4 4 5 6 8 9 9 8 8 8 6 6 8 5 -0 -3 -4 -6 -8 -9 -10 -12 -12 -12 -12
2 -2 -1 -0 0 1 2 3 5 6 6 7 8 8 7 7 6 5 4 6 8 0 -4 -8 -8 -9 -11 -12 -13 -12 -12 -12 -13
7 4 1 0 1 2 3 4 6 7 7 7 8 8 7 6 4 2 -2 2 5 -3 -7 -10 -10 -11 -12 -12 -13 -15 -17 -19 -20
7 9 7 1 2 3 4 5 6 7 7 8 8 7 6 3 0 -4 -7 -8 -7 -7 -9 -11 -11 -12 -12 -15 -17 -18 -19 -20 -21
6 8 9 5 2 4 5 6 7 8 8 8 8 7 5 3 -3 -6 -9 -10 -10 -10 -10 -10 -12 -13 -16 -18 -18 -19 -21 -21 -21
4 6 9 8 7 4 5 7 8 8 9 9 8 8 5 0 -4 -7 -10 -11 -11 -10 -10 -12 -13 -15 -17 -18 -19 -20 -20 -21 -21
4 5 8 8 8 5 6 7 9 9 9 9 9 8 6 -2 -5 -7 -10 -12 -12 -11 -11 -13 -14 -16 -17 -19 -19 -19 -20 -20 -20
10 6 6 9 10 9 7 8 9 10 10 9 9 8 7 -3 -5 -7 -9 -12 -13 -13 -13 -15 -16 -16 -17 -18 -18 -18 -19 -20 -20
11 10 5 8 10 10 9 9 10 10 10 9 8 7 5 -4 -4 -6 -8 -11 -12 -12 -13 -14 -14 -15 -16 -17 -17 -18 -18 -19 -20
10 10 8 5 9 9 8 9 10 10 10 9 8 7 2 -4 -4 -5 -7 -10 -11 -11 -12 -12 -13 -13 -14 -15 -16 -17 -18 -19 -20
10 10 10 8 8 9 8 8 10 10 10 9 8 3 1 -4 -3 -3 -5 -8 -9 -10 -10 -10 -11 -12 -12 -14 -15 -17 -18 -19 -20
9 9 9 10 10 10 9 8 9 10 10 9 7 3 1 -2 -3 -3 -5 -6 -8 -9 -8 -9 -10 -10 -11 -13 -15 -17 -18 -19 -21
9 9 9 9 9 10 10 9 9 10 10 9 9 7 3 -3 -3 -4 -4 -6 -7 -8 -8 -9 -10 -10 -11 -13 -16 -17 -18 -20 -21
9 9 8 8 8 8 9 10 9 10 10 10 10 8 5 1 -2 -4 -4 -4 -6 -7 -8 -9 -10 -10 -12 -15 -16 -17 -19 -20 -21

GFSFLT1_850_dewp_066.txt.gz
Dewpoint
-8 -8 5 6 5 10 13 13 12 10 10 6 1 4 4 7 10 12 11 13 12 11 10 11 12 12 11 12 12 11 10 9 6
-9 0 10 6 10 10 12 13 12 10 10 0 4 6 6 10 11 12 12 12 11 9 8 7 9 9 9 10 12 12 12 12 12
-8 4 12 10 11 11 12 12 9 10 8 -4 6 7 7 10 11 12 12 9 7 5 5 6 7 6 5 7 8 8 10 11 11
-8 -6 4 10 12 13 12 11 10 9 -2 -1 6 7 8 11 11 11 11 8 7 9 9 8 5 5 2 -1 -1 -0 1 4 6
-7 -6 2 7 10 11 11 9 8 -1 1 1 6 7 8 11 11 11 10 7 8 8 6 4 -1 -2 -2 -3 -3 -4 -4 -4 -3
-5 -5 -1 2 7 8 7 1 -2 1 3 4 6 7 10 10 10 10 8 6 8 6 2 -2 -3 -3 -4 -5 -7 -8 -10 -11 -11
4 -4 -3 -0 3 2 -1 -1 2 4 6 5 6 10 10 10 9 9 6 6 7 4 -3 -5 -6 -7 -7 -8 -10 -12 -13 -13 -12
-2 -1 -1 -1 -1 0 1 2 4 7 9 7 9 9 9 8 7 6 4 6 5 3 -5 -8 -9 -9 -10 -11 -12 -12 -13 -15 -16
9 7 6 3 2 9 9 10 9 5 6 8 8 8 7 7 5 4 2 3 3 1 -7 -9 -10 -11 -12 -13 -13 -16 -18 -20 -21
11 11 7 5 8 9 9 9 8 8 8 8 8 8 7 6 3 2 -4 -3 -2 -4 -9 -11 -11 -12 -13 -15 -18 -19 -19 -20 -21
11 11 11 8 3 7 9 9 7 7 7 8 8 8 7 5 2 2 1 -7 -5 -5 -8 -9 -11 -12 -15 -17 -19 -20 -21 -21 -20
8 11 11 10 7 5 7 8 7 7 8 8 8 8 7 5 2 -4 6 -5 -9 -9 -10 -11 -12 -13 -15 -17 -18 -20 -19 -20 -20
4 6 10 11 11 8 6 6 6 8 8 9 9 9 8 6 -0 -4 -6 -5 -3 -11 -11 -11 -13 -15 -16 -17 -18 -18 -19 -19 -19
7 7 7 9 11 10 8 6 6 8 9 9 9 9 8 7 1 -5 -6 -8 -10 -9 -12 -12 -14 -15 -16 -17 -17 -17 -18 -18 -19
10 10 10 8 10 10 9 8 7 8 9 10 9 9 8 7 2 -4 -5 -7 -9 -11 -12 -12 -13 -14 -14 -16 -16 -17 -17 -17 -18
11 11 11 11 8 9 10 9 8 8 10 10 10 9 8 7 2 -4 -4 -5 -8 -10 -11 -11 -12 -12 -13 -14 -14 -15 -16 -17 -18
9 9 10 10 9 9 9 10 9 9 10 10 6 4 5 7 4 -3 -4 -4 -6 -7 -9 -10 -10 -10 -11 -12 -12 -14 -15 -16 -17
8 9 9 9 10 9 6 8 10 9 9 10 8 6 5 2 4 1 -3 -4 -5 -7 -8 -9 -9 -9 -9 -10 -11 -12 -14 -16 -17
9 8 9 9 9 9 8 8 9 10 8 10 10 9 5 2 -0 -1 -3 -4 -5 -6 -7 -8 -8 -8 -8 -9 -10 -12 -15 -16 -17
6 7 9 9 10 9 8 8 9 10 9 9 10 9 9 7 4 1 0 -2 -4 -5 -7 -7 -7 -7 -8 -9 -11 -13 -16 -16 -18

GFSFLT1_850_dewp_069.txt.gz
Dewpoint
-3 -5 -1 8 3 11 13 13 12 10 9 -1 1 2 7 11 11 12 12 12 12 11 11 12 12 11 12 12 12 12 12 10 7
-8 3 4 6 8 13 13 13 12 9 9 -2 5 5 9 11 11 12 12 12 10 10 8 7 8 9 9 11 12 12 12 12 12
-7 8 8 11 9 12 12 13 11 9 8 -3 5 6 8 10 11 11 11 8 7 9 5 5 6 6 5 7 8 8 10 11 11
-6 3 11 12 10 10 12 12 9 9 2 -2 5 6 9 11 10 11 10 7 8 9 8 2 1 1 1 -1 -2 -2 -1 1 5
-7 -5 3 11 12 12 12 11 9 7 -2 0 6 6 8 11 11 10 10 6 8 7 3 -0 -3 -4 -4 -4 -5 -5 -5 -5 -4
-7 -4 0 9 8 10 10 8 5 -2 2 3 6 7 11 10 10 10 7 7 7 6 1 -5 -8 -8 -8 -9 -10 -12 -12 -13 -13
3 -3 -3 1 6 8 6 1 -1 3 5 4 5 8 10 10 10 10 6 6 6 5 -2 -7 -9 -9 -10 -11 -13 -14 -14 -13 -14
4 -2 -4 -1 2 3 -0 -1 2 6 10 9 9 10 10 9 9 7 4 4 4 3 -3 -9 -11 -11 -11 -13 -13 -13 -15 -18 -19
8 9 4 6 3 9 6 9 10 10 10 9 9 9 9 8 7 6 3 4 -0 -2 -6 -10 -12 -12 -13 -13 -14 -17 -18 -19 -20
10 9 9 10 10 10 11 11 10 10 10 8 8 8 8 6 5 4 2 -3 -4 -5 -7 -10 -12 -12 -13 -14 -17 -18 -19 -20 -21
11 11 10 10 9 9 10 10 10 10 10 8 7 7 7 7 5 3 3 -3 -5 -5 -6 -10 -11 -13 -13 -16 -18 -19 -20 -20 -20
11 11 12 12 10 9 10 10 10 9 9 7 6 6 6 6 5 3 6 3 -4 -5 -7 -10 -11 -12 -14 -16 -17 -19 -18 -19 -19
11 12 12 12 12 10 10 10 10 9 8 7 6 7 8 7 6 3 3 5 0 -5 -10 -11 -12 -13 -14 -16 -17 -18 -18 -18 -17
10 11 11 11 11 12 10 10 10 8 7 7 6 8 8 8 6 4 -1 -1 1 -4 -7 -11 -12 -13 -14 -15 -16 -17 -17 -17 -17
12 11 11 11 11 11 11 10 10 9 8 7 6 8 9 8 7 7 0 -3 -4 -6 -7 -9 -11 -13 -14 -14 -15 -16 -16 -16 -16
12 12 12 12 11 11 12 11 10 8 8 8 6 7 9 9 8 7 3 -3 -3 -5 -7 -8 -10 -11 -12 -13 -13 -14 -14 -14 -15
9 11 12 12 12 12 11 11 11 9 8 7 7 7 7 8 8 7 4 -2 -3 -4 -6 -7 -9 -10 -10 -10 -11 -12 -12 -13 -14
11 9 10 12 12 11 11 10 11 9 9 8 8 7 6 5 4 6 5 -1 -2 -3 -5 -7 -8 -9 -9 -9 -9 -10 -10 -11 -13
8 12 11 11 12 12 11 11 10 9 9 9 8 8 7 6 3 3 2 0 -2 -3 -4 -5 -7 -8 -8 -8 -8 -8 -9 -11 -13
5 6 8 9 11 10 11 11 11 10 9 8 9 9 9 7 3 2 2 -1 -2 -3 -4 -4 -6 -7 -7 -7 -7 -8 -9 -11 -14

GFSFLT1_850_dewp_072.txt.gz
Dewpoint
-4 -7 -2 -0 8 13 13 12 10 9 2 -0 1 7 11 11 10 10 12 12 12 11 12 11 11 10 11 12 12 12 11 11 8
-7 4 5 9 8 13 13 12 11 9 4 2 3 8 11 11 10 10 11 11 10 10 8 6 4 6 8 10 11 12 12 12 11
3 7 9 9 13 13 13 12 12 9 4 2 4 8 10 11 10 10 10 8 10 8 5 4 4 5 4 6 7 8 9 11 11
-3 6 11 10 10 12 12 12 10 8 -0 1 4 7 10 10 10 10 10 6 9 8 4 0 -2 -2 -2 -2 -3 -3 -3 -2 1
-6 -5 6 9 10 10 10 11 8 6 -3 0 4 6 10 9 10 10 9 5 8 5 2 -3 -7 -8 -7 -7 -8 -8 -8 -7 -7
-7 -6 -1 9 7 5 9 9 6 -0 -0 1 4 7 10 10 10 10 10 4 5 4 -1 -7 -10 -11 -11 -11 -12 -14 -14 -14 -14
-6 -7 -4 -2 1 4 6 4 -1 -1 2 3 4 9 10 10 10 9 8 3 2 2 -3 -10 -12 -12 -12 -13 -14 -14 -14 -14 -15
3 -1 -5 -4 -2 2 2 -1 -2 3 6 7 5 10 10 10 9 8 5 2 1 -0 -4 -9 -12 -12 -12 -14 -14 -15 -17 -19 -20
5 -1 -3 -4 -3 -1 -1 -2 0 4 10 9 9 9 10 9 8 7 5 1 -0 -2 -5 -9 -13 -14 -14 -14 -16 -18 -19 -19 -20
7 4 5 2 2 3 5 6 9 9 9 8 9 9 9 8 7 6 4 0 -3 -4 -6 -9 -14 -15 -15 -15 -18 -18 -19 -20 -20
9 10 8 8 9 8 10 9 11 10 10 9 8 8 7 7 6 5 3 1 -2 -5 -7 -9 -12 -14 -15 -16 -17 -18 -19 -18 -19
10 11 11 10 9 9 9 10 10 10 9 10 8 7 6 7 7 5 3 1 -0 -4 -6 -8 -11 -13 -15 -16 -16 -17 -16 -16 -16
9 9 11 12 9 10 9 9 10 10 9 9 7 6 6 6 7 6 4 2 -0 -2 -4 -7 -11 -12 -13 -14 -15 -15 -15 -14 -12
8 8 10 11 12 10 10 9 9 10 9 8 7 6 6 7 7 7 5 2 -1 -2 -3 -5 -10 -11 -13 -14 -14 -14 -15 -14 -13
10 10 9 10 11 11 11 10 10 10 9 8 7 6 6 7 8 7 7 4 -0 -2 -3 -4 -6 -10 -12 -13 -14 -14 -14 -14 -13
11 11 11 10 11 10 11 11 11 10 9 9 7 6 6 7 8 8 7 6 4 -2 -3 -4 -5 -8 -10 -11 -12 -12 -13 -13 -12
11 11 11 11 11 11 11 11 11 11 10 9 8 6 5 6 8 8 8 7 6 0 -3 -4 -5 -6 -8 -9 -11 -11 -12 -12 -12
11 9 10 10 11 12 12 10 11 11 11 10 8 6 7 7 7 7 8 7 5 4 -1 -3 -4 -5 -6 -8 -9 -9 -10 -10 -11
10 9 10 11 11 12 10 11 9 10 11 10 9 8 7 7 6 5 5 5 4 3 1 -1 -3 -4 -6 -7 -8 -9 -8 -9 -10
6 7 9 11 11 12 12 12 12 10 10 11 11 9 8 7 6 5 4 3 3 1 1 -0 -2 -4 -5 -6 -8 -8 -8 -8 -9

GFSFLT1_850_dewp_075.txt.gz
Dewpoint
-4 -8 -6 5 13 12 12 11 10 1 -1 1 10 11 11 10 9 11 12 12 11 12 11 11 9 10 12 12 12 11 12 12 12
-9 -5 -4 7 13 12 12 12 9 4 1 3 10 11 11 11 10 10 11 11 10 9 7 4 3 4 7 10 11 11 12 12 11
-6 -3 -0 8 13 13 12 11 8 5 0 3 10 11 10 10 10 9 9 8 8 5 1 -1 -2 1 2 5 6 7 8 9 9
1 6 9 12 12 12 10 11 7 4 -3 3 7 9 10 10 10 9 9 6 7 3 -1 -3 -6 -5 -4 -3 -3 -4 -3 -2 -1
-2 8 7 7 10 11 9 8 5 3 -3 3 4 7 9 9 9 9 9 4 4 2 -2 -7 -10 -11 -10 -10 -10 -10 -9 -9 -8
-6 -4 -1 3 3 7 6 5 3 -0 -1 1 4 8 10 10 10 10 9 5 1 1 -4 -10 -13 -13 -14 -14 -14 -15 -15 -15 -15
-6 -6 -3 -1 -2 0 2 3 0 -3 -0 1 3 7 10 10 10 9 8 5 1 -1 -4 -11 -13 -14 -14 -15 -15 -15 -15 -15 -16
-5 -6 -5 -3 -3 -1 1 0 -3 -2 1 2 3 8 9 10 10 8 7 3 -0 -2 -5 -9 -13 -14 -14 -15 -15 -17 -18 -19 -20
4 1 -0 -4 -3 -0 -0 -0 -2 1 4 5 6 9 10 10 9 7 6 3 -0 -3 -4 -8 -12 -14 -15 -15 -17 -18 -19 -19 -20
7 5 1 -2 -3 -2 -1 -1 -1 3 7 8 7 7 9 9 9 7 6 4 0 -3 -5 -8 -11 -15 -16 -16 -18 -18 -18 -19 -19
9 7 5 6 4 4 4 5 7 8 8 9 8 9 8 8 7 7 6 4 1 -1 -5 -6 -9 -13 -15 -16 -17 -17 -18 -17 -17
10 7 7 8 7 7 7 8 9 11 11 9 9 8 8 8 6 6 6 5 3 -0 -3 -5 -7 -11 -14 -15 -16 -15 -15 -14 -14
10 8 8 9 9 9 8 8 9 10 10 10 10 9 7 7 6 6 6 6 4 1 -1 -3 -5 -10 -12 -13 -14 -13 -13 -13 -12
9 9 8 10 11 11 10 8 8 9 10 10 9 9 7 6 5 6 7 6 5 3 -0 -2 -4 -7 -10 -12 -13 -12 -12 -12 -12
10 9 9 8 9 10 11 10 9 8 9 10 9 9 7 6 6 5 7 7 6 5 2 -2 -2 -5 -9 -11 -12 -12 -12 -13 -13
11 10 10 10 10 10 10 11 11 10 9 10 10 9 7 6 6 6 6 7 7 6 5 2 -2 -3 -5 -8 -11 -12 -12 -13 -13
11 11 10 10 11 11 11 11 11 11 11 10 10 8 8 7 6 6 6 7 7 7 6 5 -0 -2 -3 -6 -8 -10 -12 -12 -12
10 12 12 11 11 11 11 10 11 9 10 10 10 8 8 7 6 6 6 7 7 6 5 4 1 -1 -2 -4 -7 -8 -11 -12 -11
10 10 11 11 12 12 11 11 9 9 9 11 11 10 8 7 7 6 6 6 6 5 3 3 2 0 -2 -3 -4 -7 -9 -9 -10
8 7 7 9 11 11 11 11 11 10 10 10 11 10 10 9 8 7 7 6 6 5 3 2 2 1 -1 -2 -4 -4 -5 -7 -8

GFSFLT1_850_dewp_078.txt.gz
Dewpoint
-7 -6 9 13 13 11 11 8 -3 -3 3 8 9 9 9 9 11 12 12 13 11 11 10 9 8 10 12 12 12 12 12 12 9
-10 -8 3 13 13 12 11 9 0 0 5 8 8 9 10 10 10 11 11 11 10 8 5 1 1 3 7 9 11 11 12 11 12
-8 -8 2 12 12 12 9 6 3 0 3 7 9 9 9 8 9 8 9 7 6 1 -1 -3 -4 -1 1 4 5 6 7 8 9
-8 -8 1 10 11 11 7 7 4 -3 2 5 7 7 8 8 9 8 7 4 1 -0 -3 -7 -9 -8 -5 -4 -3 -3 -2 -2 -1
-5 -4 3 9 10 10 8 6 3 -3 0 3 6 6 7 8 8 7 5 3 0 0 -5 -10 -13 -14 -12 -11 -10 -10 -9 -9 -8
-3 -0 7 10 10 10 7 6 3 -2 -1 2 3 5 6 6 8 8 7 5 1 -1 -5 -10 -14 -14 -15 -14 -15 -15 -15 -15 -15
-3 -4 2 7 6 8 7 6 4 -2 -1 1 3 5 7 8 9 8 8 6 2 -2 -4 -8 -13 -14 -14 -15 -15 -15 -15 -15 -16
-6 -5 -5 -1 -2 1 5 6 3 -2 0 1 3 7 8 8 8 9 7 6 3 -1 -4 -7 -11 -14 -14 -15 -15 -16 -18 -19 -19
-2 -3 -4 -4 -3 -1 1 2 1 -2 1 2 3 7 9 9 9 9 7 6 4 -0 -3 -5 -9 -13 -14 -15 -15 -18 -18 -19 -19
5 5 3 -0 -3 -3 -1 0 -1 -1 4 6 5 7 9 9 9 9 8 6 5 2 -1 -4 -7 -12 -14 -16 -16 -17 -18 -18 -18
6 7 5 2 2 -0 -0 0 1 0 3 5 6 6 7 8 9 9 8 6 5 3 0 -3 -6 -9 -13 -15 -17 -16 -17 -18 -17
8 8 7 5 5 6 6 5 6 7 8 8 9 8 8 7 8 8 7 6 6 4 2 -1 -3 -6 -10 -14 -15 -16 -16 -16 -15
9 9 8 7 7 8 8 8 7 7 9 9 9 9 9 8 7 7 7 6 6 5 4 1 -1 -3 -7 -10 -14 -15 -14 -15 -15
9 8 8 7 8 9 10 10 9 8 8 9 10 10 9 9 8 7 6 5 6 6 5 3 1 -1 -3 -7 -9 -12 -14 -14 -15
9 9 9 8 8 8 10 11 11 10 9 9 10 10 10 9 9 7 6 5 6 7 6 5 3 0 -1 -4 -1 -4 -12 -14 -15
11 10 10 10 9 9 9 10 11 11 11 10 9 10 10 10 9 8 6 6 6 6 6 6 5 3 -0 -2 -5 2 -1 -11 -14
12 11 11 11 10 10 10 11 11 11 11 11 10 10 10 9 9 8 7 6 6 5 6 6 5 5 3 -0 -2 -4 3 1 -10
11 11 10 11 11 12 11 11 11 11 11 11 11 10 9 9 8 7 7 7 6 5 5 6 5 4 3 2 1 -1 -3 -3 -5
10 10 10 11 12 12 12 12 12 12 12 11 11 11 10 9 8 8 7 7 6 6 6 5 4 3 3 2 1 0 -0 -3 -5
8 10 10 10 10 10 11 12 11 11 11 11 10 10 11 10 9 8 9 8 7 7 7 7 6 5 5 4 1 0 1 -1 -3

GFSFLT1_850_dewp_081.txt.gz
Dewpoint
-4 8 13 12 11 10 7 -5 -5 -2 -1 1 3 6 9 11 11 12 12 11 9 9 8 7 9 12 12 12 12 11 11 9 11
-9 2 12 12 11 10 9 -1 -3 -1 2 4 6 8 9 10 10 11 11 11 10 7 3 -1 -1 5 12 12 12 12 12 12 12
-11 -4 11 11 11 10 7 2 -2 0 3 5 7 9 8 8 8 8 9 7 2 -0 -2 -4 -5 -2 2 4 6 7 9 10 11
-9 -7 8 11 11 10 7 3 -1 2 5 7 8 8 7 7 7 6 4 2 -0 -1 -4 -8 -11 -10 -6 -4 -2 -2 -1 -1 -0
-7 -6 7 10 10 9 7 4 1 1 5 8 8 7 7 7 7 6 5 3 -0 -1 -4 -9 -13 -14 -13 -12 -11 -10 -9 -8 -8
-3 -1 7 10 10 9 7 5 4 -2 4 7 7 6 6 6 7 7 7 6 2 -1 -3 -7 -12 -13 -14 -14 -14 -15 -15 -15 -15
-3 -2 3 9 9 9 8 7 5 0 0 4 4 6 6 7 8 8 8 7 4 -0 -2 -5 -9 -13 -14 -15 -15 -15 -15 -15 -15
-4 -4 -3 2 2 2 4 4 4 1 -1 2 4 6 7 8 8 8 9 8 5 3 -1 -4 -6 -11 -14 -14 -15 -15 -17 -18 -19
-5 -4 -4 -3 -1 -0 1 3 3 -1 -2 0 3 4 7 8 8 8 8 8 7 5 2 -2 -5 -8 -13 -14 -15 -16 -17 -18 -19
2 1 0 -0 -1 -3 -1 1 1 -1 -2 1 2 3 5 7 8 8 8 8 7 6 5 1 -3 -6 -10 -14 -15 -17 -17 -17 -18
4 6 5 3 2 -2 -2 -1 0 -0 -1 2 4 6 6 6 7 8 8 8 7 6 6 4 0 -3 -6 -12 -14 -16 -16 -17 -18
8 7 7 6 5 5 4 3 3 4 4 4 6 7 7 7 6 7 8 8 7 7 6 5 4 0 -3 -6 -12 -14 -16 -16 -16
9 9 8 8 7 7 7 7 7 6 7 7 8 9 9 9 8 8 8 7 7 6 6 6 5 3 1 -2 -5 -11 -15 -16 -16
10 9 9 9 8 7 8 9 9 9 9 8 8 9 9 9 9 9 8 8 7 6 5 6 6 5 3 2 5 3 -6 -14 -15
10 9 9 10 9 9 8 9 10 10 11 10 10 9 9 10 10 9 9 9 8 6 5 5 6 6 5 4 5 6 6 1 -11
11 10 10 10 10 9 9 9 9 10 11 12 11 10 10 10 9 10 9 9 9 7 6 5 5 6 5 5 4 6 6 5 0
11 11 10 11 11 11 10 10 10 10 11 12 11 11 10 10 9 9 9 9 9 8 7 6 5 5 5 5 5 4 5 6 4
11 11 11 12 12 12 12 11 11 11 11 11 11 10 9 9 9 8 8 8 8 7 7 5 5 4 5 6 5 4 3 4 4
11 11 11 11 12 12 12 11 11 11 11 11 11 10 10 10 10 9 9 9 8 8 8 7 6 5 5 5 6 5 6 5 5
12 12 10 9 10 10 10 10 12 10 10 10 9 10 10 11 10 9 10 9 9 8 8 8 7 6 7 5 6 5 5 4 3

GFSFLT1_850_dewp_084.txt.gz
Dewpoint
9 12 12 11 9 2 -6 -7 -5 -2 2 3 8 9 10 11 11 12 11 9 8 7 5 5 10 11 12 12 12 11 10 11 12
0 12 12 11 10 6 -2 -3 -2 1 4 5 7 8 9 10 11 11 11 10 5 -1 -2 -3 -2 7 11 11 12 12 12 12 12
-7 10 11 10 10 7 1 -3 0 2 4 6 7 7 7 8 7 7 7 4 1 -2 -4 -8 -9 -5 0 4 6 9 11 11 11
-9 6 10 10 9 6 2 -1 -0 2 4 6 7 7 7 8 7 6 5 2 -0 -0 -5 -10 -13 -13 -11 -6 -4 -3 -2 -2 -1
-8 1 9 10 9 6 5 3 -1 2 4 5 7 6 7 7 6 6 6 5 3 -1 -3 -7 -12 -14 -15 -14 -13 -12 -11 -10 -10
-7 -0 11 10 9 8 7 5 2 -0 3 5 5 6 7 7 7 8 7 7 5 1 -2 -4 -8 -12 -14 -14 -15 -15 -15 -15 -15
-4 -3 6 9 9 7 6 5 3 -1 -1 3 5 5 6 7 8 8 8 7 6 4 1 -2 -5 -9 -13 -14 -15 -15 -15 -15 -15
-2 -1 0 4 7 6 6 5 4 2 -2 -1 2 4 5 6 7 8 8 8 7 6 5 1 -2 -6 -10 -13 -14 -15 -16 -17 -18
-3 -2 -2 -0 2 1 1 3 4 2 -2 -1 0 3 5 6 6 7 8 8 8 7 6 5 1 -3 -6 -11 -13 -14 -17 -17 -18
-3 -4 -3 -3 -2 -1 -1 1 3 3 -0 -1 1 2 4 5 6 7 7 8 8 7 7 6 4 2 -3 -6 -12 -14 -16 -16 -16
3 4 4 4 2 1 -1 -1 -0 1 0 -2 2 4 6 6 6 7 7 7 7 7 7 6 6 5 1 -2 -6 -12 -15 -15 -16
7 6 7 7 5 4 3 2 2 2 3 2 2 4 6 7 7 7 7 7 7 7 7 7 6 6 5 2 -1 -6 -13 -15 -15
9 9 8 8 8 6 6 6 6 6 6 6 7 7 7 7 8 8 8 8 8 8 7 6 6 6 6 5 5 2 -3 -11 -14
10 10 9 9 9 8 8 8 8 9 9 9 9 9 8 8 9 9 9 9 9 9 8 7 5 5 6 6 6 8 6 4 -5
11 10 10 10 10 10 9 9 9 9 10 10 10 10 10 10 9 9 9 9 9 9 9 8 6 5 5 6 6 7 7 6 5
12 11 10 10 10 10 10 10 10 10 10 10 10 10 11 11 10 10 9 9 9 9 9 8 7 5 5 5 6 6 6 7 6
11 10 10 11 11 11 11 11 11 11 10 10 11 11 9 9 9 9 9 8 8 8 8 8 7 6 5 5 6 7 7 7 6
11 11 11 11 12 12 12 12 12 11 11 11 11 11 9 9 8 8 8 8 8 8 8 7 7 7 6 5 5 6 6 6 6
11 12 12 12 12 11 11 11 12 12 11 10 10 10 10 11 10 10 9 10 9 9 9 8 8 8 7 5 4 6 7 6 5
11 10 10 10 10 10 9 10 11 11 12 11 11 9 10 11 10 10 9 9 9 9 8 8 7 7 8 6 6 5 6 6 5

GFSFLT1_850_dewp_087.txt.gz
Dewpoint
12 11 10 8 -2 -8 -7 -4 -2 0 4 8 9 11 11 12 12 11 10 10 6 2 1 4 11 12 11 12 12 11 11 12 12
12 12 11 8 4 -4 -3 -1 1 3 4 6 8 9 10 11 11 10 9 3 -0 -3 -5 -6 -1 6 11 12 12 11 11 11 12
11 11 10 9 6 -0 -2 -0 1 2 4 6 6 6 6 6 6 5 3 0 -1 -2 -7 -11 -12 -11 -4 1 4 7 8 10 11
6 11 10 9 7 3 -1 -1 1 3 4 5 6 5 6 6 4 4 4 4 1 -2 -4 -8 -12 -13 -13 -12 -9 -7 -5 -4 -4
-0 10 9 10 8 6 3 -1 0 2 4 5 5 5 6 6 6 6 6 6 4 -0 -2 -5 -9 -12 -14 -14 -13 -13 -12 -12 -13
-6 8 10 11 9 6 5 3 -1 -1 1 4 4 4 5 6 7 7 7 7 6 4 1 -2 -5 -9 -12 -14 -14 -14 -14 -14 -14
-5 2 9 9 9 8 6 5 3 0 -1 1 4 4 4 5 7 7 8 8 6 6 5 3 -1 -5 -9 -12 -14 -14 -15 -15 -16
-3 -1 5 6 8 8 7 6 5 3 0 -2 1 3 4 5 6 7 8 8 7 6 6 5 3 -0 -4 -9 -13 -14 -16 -16 -17
-1 0 0 4 4 5 4 6 5 4 3 -2 -1 1 3 5 6 7 8 8 8 7 6 6 6 4 0 -4 -10 -13 -15 -16 -16
-3 -1 -1 -2 -1 1 1 1 3 4 3 -1 -1 1 2 4 5 6 7 7 8 8 7 6 6 6 5 1 -3 -9 -13 -15 -15
6 -1 -1 0 2 1 1 -1 -1 1 2 1 -1 2 4 6 6 7 7 7 7 7 7 7 6 6 6 5 2 -2 -9 -13 -15
8 4 5 6 6 3 4 1 1 2 2 3 2 3 5 6 8 8 8 8 8 8 8 7 7 6 6 6 6 4 0 -7 -13
9 8 7 7 8 6 5 6 6 6 6 7 7 7 7 8 8 8 8 9 9 9 9 8 7 6 5 6 8 8 7 3 -1
10 10 9 9 9 8 8 7 7 8 9 9 9 9 9 9 9 9 9 9 9 9 9 9 8 7 6 5 7 8 8 7 6
11 10 10 10 10 9 9 9 9 9 9 9 9 9 10 10 10 10 9 9 9 9 9 9 9 8 6 5 5 7 8 7 7
11 11 11 10 10 10 10 10 10 10 10 10 10 10 10 10 9 9 8 8 9 8 8 8 9 8 7 6 5 6 6 8 8
11 11 11 11 11 11 11 11 11 11 11 11 11 11 10 9 8 7 7 8 8 8 9 8 8 7 7 6 5 6 6 7 8
11 11 11 11 11 11 11 12 12 12 12 11 11 11 10 10 9 9 8 9 9 9 8 9 8 8 8 7 5 5 7 7 7
12 12 11 11 11 11 11 11 11 12 12 11 10 10 11 11 10 9 9 9 9 8 9 8 8 8 8 7 7 6 6 7 8
11 10 10 10 10 10 9 10 10 10 11 12 11 11 10 11 10 10 9 8 7 8 8 7 7 6 7 7 7 6 6 6 6

GFSFLT1_850_dewp_090.txt.gz
Dewpoint
10 7 1 -9 -9 -8 -5 -2 -1 4 8 9 10 10 11 12 12 12 11 4 -3 -3 -2 7 12 11 11 11 11 12 12 12 12
11 8 4 -5 -6 -4 -2 1 3 4 6 7 9 10 10 12 12 11 10 -0 -3 -7 -10 -8 2 5 9 12 12 12 12 12 12
11 10 7 2 -4 -2 -0 2 4 5 6 6 6 6 5 10 10 8 3 -1 -2 -5 -8 -12 -13 -12 -5 0 4 7 7 9 8
12 11 9 6 1 -2 1 3 4 5 5 5 5 5 5 10 9 10 10 2 -1 -2 -5 -7 -11 -13 -14 -13 -12 -9 -8 -8 -9
13 13 11 9 6 2 -1 -0 2 3 4 5 4 5 5 10 9 11 6 5 4 1 -1 -3 -7 -10 -13 -14 -15 -15 -15 -15 -15
10 13 13 12 8 6 4 1 -1 1 3 4 3 4 9 10 10 11 7 6 5 5 4 1 -2 -6 -10 -13 -14 -14 -15 -15 -15
4 9 10 12 9 7 6 5 4 -0 3 2 4 8 6 7 8 11 7 7 7 6 6 5 3 -1 -5 -9 -13 -14 -15 -16 -16
-5 4 11 11 9 8 8 6 7 5 3 -1 4 4 5 8 7 8 7 8 7 7 6 6 6 4 0 -4 -9 -13 -14 -16 -16
2 8 10 11 10 11 10 11 9 6 4 1 -0 0 2 4 5 9 7 7 8 7 7 6 6 6 5 2 -3 -9 -13 -15 -15
3 10 10 11 11 11 8 5 8 7 6 3 -1 -1 1 3 5 7 6 6 7 8 7 7 6 6 6 6 4 -1 -7 -12 -15
-0 1 2 2 -1 2 4 4 1 2 3 3 0 -1 2 4 6 7 8 7 7 7 8 8 7 6 5 5 6 6 1 -4 -11
8 5 1 2 4 5 3 3 0 0 1 2 3 2 4 6 7 8 8 8 8 8 8 8 8 8 7 6 7 6 7 5 0
8 8 4 6 7 7 5 5 5 5 6 6 7 7 7 8 8 8 8 9 9 9 9 9 9 9 8 7 8 8 7 7 7
9 9 9 8 8 8 8 7 7 7 8 8 9 9 9 9 10 10 10 10 9 9 10 9 9 9 8 7 7 8 8 7 7
10 10 10 10 10 9 9 9 9 9 9 9 9 9 9 9 10 9 8 8 8 9 9 9 9 9 8 7 6 6 8 8 8
11 11 11 10 10 10 10 10 10 10 10 10 10 10 10 10 10 9 8 8 7 7 8 8 9 9 8 7 6 6 6 8 8
11 11 11 11 11 11 11 10 10 10 11 11 11 11 10 11 10 9 8 8 8 8 9 8 8 8 8 7 6 6 6 7 8
11 11 11 11 12 11 11 11 11 11 11 11 11 11 10 10 10 9 9 8 9 9 8 9 9 9 8 7 7 7 6 6 7
12 12 12 12 11 11 11 11 11 12 11 11 11 11 11 10 10 10 9 8 8 9 8 9 8 8 8 7 7 7 7 6 6
11 11 11 11 11 11 11 11 11 10 11 11 11 11 10 10 10 10 8 8 8 8 8 8 7 6 6 4 6 6 6 6 6

GFSFLT1_850_dewp_093.txt.gz
Dewpoint
4 -6 -10 -9 -7 -4 -3 -0 4 8 8 9 10 10 12 12 11 11 2 -4 -5 -5 -1 9 11 10 11 11 12 12 12 11 11
7 0 -7 -6 -4 -2 -0 2 5 6 7 9 10 10 11 11 11 10 -0 -3 -7 -10 -12 -11 -8 -2 2 9 10 10 11 10 10
9 5 -4 -4 -2 -0 1 3 4 5 5 6 5 5 10 10 11 8 1 -2 -3 -6 -9 -11 -13 -13 -11 -9 -3 1 2 -0 -3
11 8 3 -3 -2 -0 2 2 4 4 4 4 4 4 9 11 11 11 4 2 -0 -2 -4 -6 -9 -12 -14 -14 -14 -13 -14 -13 -14
12 9 7 3 -1 -1 0 1 2 3 3 3 4 5 10 11 11 9 5 4 4 3 2 -2 -5 -7 -11 -13 -14 -15 -15 -15 -15
13 12 10 8 5 2 -0 -2 -0 1 3 3 3 7 11 11 11 11 6 6 5 5 5 4 1 -3 -6 -10 -13 -14 -15 -16 -16
13 11 11 11 7 5 4 2 0 -1 7 3 3 10 10 10 11 10 6 6 6 6 5 5 5 3 -2 -5 -10 -13 -14 -16 -15
12 12 12 13 9 7 5 5 5 8 8 9 10 9 10 10 10 8 5 6 6 6 6 5 5 5 5 -0 -4 -9 -12 -15 -15
10 12 12 13 13 13 12 12 12 8 5 8 7 8 9 9 10 10 6 5 6 7 6 6 6 5 6 6 3 -2 -7 -11 -14
10 11 12 13 13 13 12 12 12 12 11 9 3 3 6 8 7 9 7 6 6 7 8 7 7 6 5 5 6 6 1 -4 -10
11 12 12 12 12 12 12 11 10 10 11 10 8 4 4 3 6 7 9 7 7 7 7 9 9 8 7 6 5 6 6 5 -0
9 11 11 11 11 10 11 11 7 9 9 8 9 7 7 8 8 8 9 10 8 8 8 8 9 10 9 8 8 7 7 7 7
9 9 9 9 10 9 10 10 10 9 10 10 10 8 7 8 10 10 9 9 9 9 9 9 9 9 9 9 9 8 8 7 7
10 11 11 9 9 9 9 9 10 11 10 9 9 10 9 10 10 9 10 10 9 9 10 9 9 9 9 9 8 8 9 8 8
11 12 12 12 10 8 9 10 9 8 10 10 8 9 9 10 9 11 11 11 9 8 9 9 8 9 9 9 8 8 8 9 8
13 13 13 13 12 11 11 10 10 9 9 10 9 10 10 10 10 11 11 10 9 8 8 9 8 9 9 8 8 7 7 7 9
12 12 12 13 13 11 12 11 10 10 11 10 12 11 11 11 11 10 10 9 9 8 8 9 9 9 9 9 7 7 7 6 7
12 12 11 12 12 12 12 11 11 11 11 11 11 12 11 10 10 10 9 9 9 8 9 9 9 9 9 8 8 8 7 7 6
10 10 11 11 11 11 11 11 11 11 12 12 11 11 11 11 10 9 9 9 9 8 9 9 8 8 8 7 7 6 6 7 7
9 9 8 9 12 11 12 12 12 12 11 12 12 11 11 11 10 8 8 9 8 8 8 8 8 7 7 6 5 4 5 5 6

GFSFLT1_850_dewp_096.txt.gz
Dewpoint
-11 -11 -10 -8 -6 -4 3 5 7 8 9 10 9 10 11 11 5 -3 -6 -9 -10 -8 -3 3 7 8 9 10 10 11 10 9 8
-9 -9 -7 -3 -2 -0 3 5 6 7 8 8 9 11 11 9 0 -3 -4 -6 -8 -10 -12 -13 -13 -9 -4 1 4 2 3 -1 -5
-4 -6 -5 -2 -1 0 2 3 3 4 5 5 6 9 10 9 8 1 -2 -3 -3 -5 -7 -9 -12 -13 -14 -14 -13 -12 -12 -13 -15
3 -4 -3 -2 -1 1 2 2 2 2 2 3 4 8 8 11 10 4 3 2 1 -0 -2 -5 -7 -10 -12 -14 -14 -15 -15 -15 -15
7 4 -1 -2 -1 0 1 2 2 2 2 3 4 9 11 11 10 6 4 4 4 3 3 1 -3 -5 -9 -11 -13 -14 -15 -16 -16
10 9 6 2 -1 -2 -1 0 1 2 2 2 4 8 11 11 10 8 5 5 4 4 4 4 3 0 -4 -7 -10 -12 -14 -15 -15
10 7 6 5 4 2 1 -1 -1 1 3 3 5 9 10 9 9 7 5 5 5 4 4 4 4 4 3 -2 -5 -9 -12 -14 -14
14 9 7 5 3 4 4 4 3 3 7 7 7 10 10 10 10 8 6 5 4 5 5 5 4 5 5 5 2 -3 -7 -11 -14
10 10 7 5 6 6 5 10 10 6 4 5 5 7 9 8 9 8 8 5 5 5 6 6 6 5 4 5 6 5 0 -5 -10
9 11 11 9 10 9 10 12 12 9 9 7 3 3 4 7 7 6 7 7 7 6 6 7 8 8 7 6 5 5 6 3 -2
10 11 12 12 13 12 12 11 9 10 9 10 9 4 2 3 5 6 7 8 8 8 8 8 8 9 9 9 8 6 6 6 6
11 11 12 11 12 10 9 10 9 7 8 8 8 9 6 7 7 7 8 8 8 8 9 9 9 9 9 9 9 8 7 7 7
8 9 11 9 10 8 8 7 5 5 6 7 8 8 7 7 8 10 9 9 9 9 9 9 9 9 9 10 10 9 8 8 8
10 9 9 8 8 8 7 7 7 8 8 8 8 8 8 8 9 9 10 10 10 9 8 8 9 9 9 9 9 9 9 9 9
11 11 11 11 9 8 7 8 8 7 9 8 8 8 8 8 8 9 10 11 11 9 8 8 9 8 8 9 9 8 8 9 9
12 11 12 13 11 10 10 9 9 8 8 9 9 9 9 9 10 10 10 10 10 10 8 8 9 9 8 8 8 8 8 8 9
13 12 12 13 13 12 11 12 10 10 10 9 10 11 10 11 11 11 11 11 10 9 9 8 9 8 8 8 8 9 8 7 7
11 11 11 11 12 12 11 11 11 10 11 11 11 11 11 11 10 11 11 9 9 9 9 8 9 9 8 8 8 8 7 7 7
11 11 10 10 10 10 11 11 11 11 11 12 11 12 11 11 11 10 10 9 9 9 9 9 8 8 8 8 7 6 6 6 6
7 8 9 8 7 7 8 10 10 10 12 12 12 12 12 12 11 11 11 9 9 9 9 8 8 7 7 6 6 6 5 4 3

GFSFLT1_850_dewp_099.txt.gz
Dewpoint
-12 -10 -9 -7 -3 3 5 7 9 11 9 9 10 9 5 -1 -5 -7 -8 -10 -11 -11 -10 -10 -5 -0 4 5 5 3 -1 -6 -11
-10 -8 -5 -4 4 5 6 7 8 8 7 9 10 8 5 -1 -3 -4 -4 -5 -7 -8 -10 -11 -12 -11 -12 -11 -9 -10 -13 -15 -15
-7 -4 -3 -1 1 3 4 5 6 6 5 7 7 7 6 4 2 0 -1 -1 -2 -4 -6 -8 -10 -12 -13 -14 -14 -14 -15 -15 -15
-5 -3 -1 -1 1 2 1 2 2 2 2 6 7 8 6 6 4 3 3 3 3 1 -1 -4 -6 -8 -10 -12 -13 -14 -15 -15 -15
-4 -3 -2 -1 0 1 1 1 1 2 2 4 7 9 8 7 6 4 4 4 4 4 3 2 -0 -3 -6 -9 -11 -13 -15 -14 -14
2 -2 -3 -2 -1 -0 0 0 1 1 2 4 8 10 9 8 6 5 4 4 4 3 4 4 4 3 0 -4 -7 -10 -12 -14 -14
6 3 0 -1 -2 -2 -2 -2 -1 1 2 4 8 9 9 8 6 5 4 4 4 4 4 4 4 4 4 3 -0 -4 -8 -12 -13
6 2 2 2 2 2 1 1 1 2 3 5 7 9 10 9 8 6 6 5 4 5 5 5 4 4 4 4 5 4 -1 -7 -11
8 6 2 1 2 3 3 4 6 4 2 3 4 6 8 7 7 6 6 6 6 6 6 6 7 7 7 5 4 5 5 1 -5
5 5 6 6 5 4 6 7 7 8 6 6 4 2 3 5 4 5 6 7 7 7 7 7 8 8 8 8 7 6 5 6 5
5 7 9 9 9 10 10 9 10 9 7 8 6 4 1 2 3 5 6 7 8 8 8 8 8 9 9 9 8 8 7 6 6
9 10 11 11 11 11 11 11 9 7 6 6 6 5 5 5 6 7 7 8 8 8 9 9 9 9 9 9 9 9 8 8 7
10 10 11 12 12 12 11 9 8 8 6 5 5 6 6 6 6 7 8 9 9 9 8 8 8 9 9 9 10 9 9 8 8
7 9 10 9 9 8 8 7 7 6 6 6 7 7 7 7 8 8 9 10 10 10 9 8 8 8 8 8 8 9 10 10 9
9 9 8 9 9 8 8 8 8 7 8 9 8 8 7 7 8 9 10 10 11 11 10 8 8 8 8 8 8 9 9 10 9
12 10 9 10 10 8 8 8 9 9 9 9 8 8 8 8 9 10 10 11 10 10 10 9 9 8 9 8 7 8 8 7 8
12 11 11 12 12 12 11 10 10 10 10 10 10 10 9 9 10 11 11 11 10 10 10 9 9 8 9 8 8 8 7 7 8
12 13 11 12 13 13 12 11 11 11 11 10 11 11 11 10 10 11 11 11 10 10 9 9 8 8 9 8 8 7 6 6 7
12 12 11 11 12 11 11 11 11 12 11 11 11 11 11 11 10 11 11 10 10 9 9 9 9 8 8 8 8 7 6 5 5
10 10 11 11 10 10 9 9 9 8 9 8 9 9 10 12 11 11 10 9 9 10 9 9 8 8 7 6 5 5 5 5 5

GFSFLT1_850_dewp_102.txt.gz
Dewpoint
-8 -11 -8 -5 0 3 8 10 11 10 8 6 4 -0 -4 -6 -6 -7 -8 -9 -10 -11 -11 -10 -6 -2 -3 -5 -9 -12 -14 -15 -15
-11 -8 -2 2 4 5 8 9 8 7 6 5 2 0 -1 -3 -3 -3 -3 -4 -6 -8 -9 -10 -11 -12 -13 -13 -14 -14 -15 -14 -14
-7 -5 0 3 4 4 5 6 6 6 6 2 3 6 4 2 2 1 1 0 -1 -3 -5 -7 -9 -11 -12 -13 -13 -14 -14 -14 -13
-4 -2 -0 1 1 2 3 4 3 2 5 5 4 6 6 4 4 3 3 3 3 2 1 -2 -4 -6 -8 -10 -12 -14 -14 -13 -13
-2 -1 -0 0 0 0 1 1 1 2 3 6 7 7 6 6 5 4 3 3 3 3 3 3 2 -1 -4 -6 -9 -12 -13 -13 -13
-2 -1 -1 0 1 0 0 1 1 2 4 6 8 7 6 5 5 3 3 3 3 3 3 3 3 4 3 0 -4 -7 -10 -13 -13
-3 -2 -1 -1 -1 0 0 1 1 1 3 6 8 7 6 6 6 5 4 4 4 4 4 4 4 4 4 4 3 -1 -5 -10 -12
-1 -3 -2 -2 -2 -2 -2 -2 -0 1 1 4 6 7 6 5 5 5 5 5 5 5 5 6 6 6 5 4 4 4 1 -5 -9
3 2 -0 -0 -0 0 1 1 2 3 3 2 4 4 5 4 4 4 5 6 6 6 6 7 7 8 8 7 6 5 5 3 -2
3 6 4 3 2 3 4 5 8 7 4 4 3 4 3 3 3 4 5 6 7 7 7 8 8 8 9 9 8 7 6 6 6
3 3 5 5 6 6 8 9 9 8 8 8 7 5 2 1 3 4 6 7 8 8 8 8 8 9 9 9 9 8 7 7 6
2 4 7 9 9 10 9 9 9 9 8 5 5 6 6 4 5 6 7 8 8 9 9 8 9 9 9 9 9 9 9 8 7
6 7 8 10 10 10 10 10 9 8 8 6 6 5 6 6 6 6 7 8 9 10 9 8 8 8 8 9 9 9 9 9 9
6 8 9 10 11 11 11 11 9 8 7 6 6 6 7 7 8 8 8 9 10 10 10 9 8 8 8 8 8 9 10 9 9
7 9 10 11 11 11 10 8 8 8 7 8 7 7 7 7 7 8 9 10 10 11 11 10 9 8 8 8 6 7 9 10 9
11 9 9 9 9 9 8 8 8 8 8 9 9 8 8 8 8 9 10 11 11 10 10 10 10 9 8 8 8 7 7 8 8
12 12 11 10 10 10 10 10 9 9 10 10 10 10 9 8 9 10 11 11 11 10 10 9 10 9 8 8 8 8 6 6 6
12 13 12 12 10 8 9 10 10 10 11 11 11 11 11 10 10 10 11 11 11 11 10 9 9 8 8 8 8 8 7 7 6
13 12 12 11 12 9 10 10 9 10 10 11 11 11 11 11 11 10 10 11 11 10 10 9 9 9 8 8 7 7 7 6 6
12 12 12 12 12 12 12 11 10 10 9 9 10 9 9 9 9 10 10 10 10 9 8 9 8 8 8 7 7 5 5 4 3

GFSFLT1_850_dewp_105.txt.gz
Dewpoint
-6 -12 -9 -5 -1 7 9 7 6 6 2 -1 -4 -4 -5 -6 -6 -7 -7 -7 -8 -9 -10 -10 -10 -11 -12 -13 -14 -14 -12 -12 -7
-11 -8 -4 -0 4 7 7 4 5 5 2 -1 -2 -2 -2 -2 -2 -2 -2 -3 -4 -6 -7 -8 -10 -11 -12 -13 -13 -13 -11 -9 -3
-6 -2 1 3 5 6 5 4 3 4 2 3 2 2 2 2 2 2 2 1 1 -1 -2 -4 -6 -8 -10 -11 -13 -12 -12 -10 -8
-3 -0 1 3 4 4 3 3 3 2 2 4 4 4 3 3 3 2 2 2 2 2 2 1 -1 -3 -6 -8 -11 -12 -12 -9 -9
-2 -1 -0 1 2 3 3 2 2 4 3 4 5 4 4 3 2 2 2 2 2 2 2 3 3 2 -0 -3 -7 -10 -12 -12 -11
-2 -1 -1 -0 1 1 1 1 2 3 4 4 5 5 4 3 3 2 3 3 3 3 3 3 3 4 4 3 -1 -5 -9 -11 -11
-1 -0 0 0 1 1 2 2 2 3 5 7 7 7 6 6 4 5 4 4 5 5 5 5 5 5 4 4 4 1 -5 -9 -11
-1 -1 -0 1 1 1 1 1 2 2 4 6 6 7 7 6 6 5 5 5 6 6 6 6 7 7 7 6 5 4 2 -3 -7
-3 -2 -1 -1 -1 -1 -1 -0 1 3 4 5 6 6 6 6 5 5 6 6 7 7 7 7 7 8 8 8 7 6 5 4 0
0 -0 -0 0 0 1 1 1 3 4 4 4 4 4 5 5 5 5 6 7 7 7 8 8 8 8 8 9 8 8 7 6 5
3 3 4 4 4 4 4 6 8 8 7 6 6 5 3 3 3 5 6 7 8 8 8 8 9 9 8 9 9 9 8 7 7
4 5 5 7 7 7 7 8 8 8 8 7 8 8 7 4 3 5 7 8 9 9 9 9 9 8 8 8 9 9 9 9 8
3 2 6 9 9 9 10 10 9 9 8 8 7 7 7 7 6 6 7 8 9 9 10 9 8 8 7 8 9 9 10 10 9
5 6 8 9 10 10 10 10 10 10 9 9 8 6 6 7 8 8 8 8 9 10 10 10 9 8 8 8 8 8 9 9 9
6 7 9 9 10 11 11 11 10 10 9 8 7 7 7 8 8 8 9 9 10 10 10 10 10 9 8 8 8 8 8 8 9
8 7 8 9 10 11 11 10 10 9 8 9 8 8 8 8 8 9 9 10 10 10 10 9 9 10 9 9 8 8 8 8 8
11 11 11 10 10 10 10 9 8 8 9 9 10 9 9 9 9 9 9 10 11 11 10 10 10 8 8 7 7 8 8 7 6
11 11 12 12 12 11 11 11 11 9 10 10 11 11 10 10 10 10 10 10 10 10 10 11 10 9 8 8 8 8 7 7 7
12 12 12 12 11 11 10 11 11 10 10 10 10 10 10 10 10 10 10 10 10 10 10 10 10 8 7 8 8 7 7 6 5
12 13 12 11 11 11 11 10 12 10 10 10 11 10 11 10 10 9 9 9 10 9 10 10 9 8 8 8 7 7 6 5 5

GFSFLT1_850_dewp_108.txt.gz
Dewpoint
-5 -13 -11 -5 4 11 7 4 -0 -1 -3 -4 -4 -4 -4 -4 -4 -4 -5 -6 -7 -8 -9 -9 -10 -11 -11 -12 -10 -9 -6 -3 -3
-12 -11 -6 1 6 4 3 1 -0 -1 -2 -2 -2 -1 -1 -0 0 0 -0 -1 -2 -3 -5 -6 -7 -9 -10 -11 -11 -10 -8 -4 3
-10 -5 -1 4 4 1 1 1 1 1 1 1 1 2 2 2 2 2 2 2 2 1 0 -1 -3 -5 -7 -9 -10 -10 -7 -3 1
-5 -1 2 3 2 1 1 2 2 3 4 4 3 2 2 2 2 2 2 2 2 2 2 2 1 -1 -3 -6 -8 -10 -10 -9 -7
-0 1 2 3 3 2 2 2 3 3 4 5 4 4 3 2 3 3 3 3 3 3 3 3 3 3 2 -0 -4 -7 -10 -10 -6
-1 1 2 3 4 4 3 3 4 4 4 5 5 4 4 4 4 4 4 4 4 4 4 5 5 4 4 3 1 -3 -8 -9 -10
-1 0 1 2 3 3 3 2 3 4 5 6 6 6 5 5 5 5 5 5 5 5 6 6 6 6 6 5 4 2 -3 -6 -8
-1 -0 1 1 2 1 2 2 2 3 5 5 6 6 6 5 5 5 6 6 6 6 7 7 7 7 7 7 6 5 3 0 -3
-1 -0 0 1 1 1 2 2 2 3 4 5 5 5 6 5 5 5 5 6 7 7 7 7 8 8 8 8 8 7 6 5 3
-1 -0 0 0 -0 -0 -0 0 2 4 5 5 5 5 4 4 4 5 5 6 7 7 8 8 8 8 8 8 8 8 7 6 6
-2 -2 -1 -1 0 1 2 2 4 6 6 5 5 5 4 4 3 4 5 7 7 8 8 9 9 8 7 8 9 9 8 8 7
2 2 2 4 4 4 5 6 8 9 8 7 7 8 8 7 4 4 6 8 9 9 9 9 9 9 8 9 9 8 8 9 8
4 5 6 7 7 7 7 8 9 9 8 8 7 6 7 7 7 6 6 7 9 10 10 10 9 8 7 8 9 9 9 9 9
4 3 4 7 9 9 10 10 10 10 9 8 8 8 7 6 7 7 8 8 8 9 10 10 10 8 7 7 7 8 9 8 8
5 6 7 8 9 10 9 10 10 10 8 8 8 7 7 7 7 8 8 9 9 10 10 9 9 9 9 9 8 8 8 8 8
7 6 7 8 8 8 10 11 10 9 9 9 8 7 8 8 7 7 8 9 9 10 10 10 9 9 8 8 6 7 7 8 7
10 10 9 9 9 9 10 11 10 10 10 10 10 9 9 9 9 9 9 9 9 10 10 10 9 10 8 8 7 8 7 7 8
11 12 11 11 11 11 11 11 10 10 10 11 11 10 10 10 9 9 9 9 9 9 9 9 9 10 9 8 6 7 7 7 7
12 12 12 12 11 11 12 12 11 10 9 11 10 10 10 11 10 10 10 9 9 10 8 9 10 10 9 7 7 7 7 6 6
12 13 13 13 12 11 11 10 9 10 10 9 7 9 10 11 11 10 10 9 9 8 8 9 9 10 9 7 7 7 6 5 5

GFSFLT1_850_dewp_111.txt.gz
Dewpoint
-6 -13 -5 9 8 6 1 -2 -4 -5 -5 -5 -5 -4 -4 -3 -3 -3 -4 -5 -6 -6 -7 -7 -8 -9 -9 -9 -5 -3 -0 4 0
-12 -10 -1 7 6 2 -0 -2 -3 -3 -3 -2 -1 -1 0 1 1 1 0 -0 -1 -2 -2 -3 -4 -6 -8 -9 -7 -6 1 2 2
-12 -5 4 5 3 1 0 -1 -1 -1 0 1 2 2 2 2 2 2 2 2 2 1 1 0 -1 -3 -5 -7 -7 -6 -2 -1 6
-7 -1 4 5 2 1 1 1 2 2 2 2 2 2 2 2 2 2 2 2 2 2 2 2 2 1 -0 -3 -5 -8 -8 -5 6
-3 2 3 3 2 1 2 2 3 4 4 4 4 3 2 2 3 3 3 3 3 3 4 4 4 3 3 1 -1 -5 -7 -7 -5
-0 2 2 3 2 2 3 3 3 4 5 4 3 3 3 3 3 4 4 4 4 5 5 5 5 5 5 4 3 -0 -4 -7 -8
0 2 3 3 4 3 3 3 3 5 5 5 5 4 4 4 4 4 4 5 5 5 5 6 6 6 6 6 5 3 1 -3 -6
2 2 3 2 3 2 2 2 3 4 5 5 6 6 5 4 4 5 5 6 6 6 6 6 6 7 7 7 6 6 5 3 0
2 2 3 2 2 2 2 2 2 3 4 4 5 5 5 5 5 5 6 6 7 7 7 7 7 7 7 8 7 7 6 6 5
1 1 2 1 1 1 2 2 2 2 4 5 4 5 4 4 4 5 5 6 7 7 8 8 8 7 6 7 8 8 8 7 6
0 1 1 1 1 1 1 1 2 4 5 5 5 4 4 3 3 4 5 6 7 8 9 9 9 8 7 7 8 8 8 8 7
-0 -0 -0 -1 -1 -0 1 2 4 7 9 8 7 8 7 7 6 3 5 6 7 9 9 10 9 8 8 8 8 8 8 8 8
-1 -1 0 2 3 4 4 5 8 9 9 8 8 7 6 7 7 7 6 7 8 9 9 10 9 8 7 7 8 8 9 9 8
4 4 6 6 7 7 7 7 9 9 9 9 8 8 7 6 5 6 7 7 7 8 9 10 10 9 8 8 8 8 7 8 8
6 6 8 7 9 9 9 10 10 10 10 9 8 8 8 7 7 7 8 8 8 9 10 10 9 8 8 8 8 6 7 7 7
7 7 6 8 9 9 11 11 11 11 10 9 8 8 8 8 9 8 8 8 8 9 9 10 10 10 9 10 8 7 6 7 7
7 7 8 9 9 10 11 11 11 11 10 9 9 9 9 9 9 9 9 9 9 9 9 10 10 9 10 10 8 8 7 6 6
10 10 9 9 10 10 10 11 11 10 9 10 10 10 9 9 10 9 9 8 9 10 10 8 9 9 10 10 9 7 7 7 7
11 11 10 11 11 11 11 11 11 9 8 9 10 10 10 10 10 10 10 10 10 9 10 9 8 9 10 10 9 7 7 6 5
12 11 12 11 12 9 9 11 9 9 9 9 10 10 9 9 10 10 10 10 9 9 8 7 8 7 7 9 9 8 8 6 6

GFSFLT1_850_dewp_114.txt.gz
Dewpoint
-1 11 11 11 7 4 -1 -3 -5 -5 -5 -5 -4 -4 -3 0 6 7 0 -1 -5 -5 -5 -5 -6 -7 -6 -6 -4 5 2 5 6
-2 11 10 8 5 -0 -3 -4 -4 -4 -3 -2 -1 0 0 4 5 9 6 0 -0 -0 -1 -2 -3 -5 -5 -3 0 1 1 5 8
-7 10 9 6 1 -1 -2 -3 -3 -1 -0 1 1 2 1 3 3 4 2 2 2 1 1 1 -0 -1 -3 -4 -5 -5 0 6 6
-4 10 8 4 0 -0 -1 -1 0 1 1 2 2 2 1 2 3 8 3 2 2 3 3 3 2 2 0 -2 -5 -5 -5 -4 3
6 9 6 3 1 1 2 2 3 3 3 2 1 1 2 4 6 7 3 3 4 4 4 4 4 4 3 1 -1 -3 -6 -6 -3
9 11 6 4 3 2 3 4 3 4 3 3 2 2 7 8 10 6 4 4 5 5 5 5 5 5 5 4 2 -0 -3 -4 -6
13 11 8 5 4 4 3 3 4 5 5 4 4 8 8 9 9 5 4 5 5 6 6 6 6 6 6 6 5 3 2 -0 -2
12 13 12 6 5 5 5 4 5 6 9 6 10 10 9 9 7 5 5 5 6 6 6 6 6 6 6 6 6 6 5 3 2
12 13 12 8 10 5 3 6 4 5 6 8 8 9 10 10 8 5 5 6 6 7 7 7 7 5 6 7 7 7 6 6 5
11 11 12 11 8 4 2 4 3 5 6 5 6 5 7 5 6 10 5 6 7 7 8 8 7 6 6 7 7 7 7 7 6
11 10 10 7 4 3 3 3 3 3 7 6 4 4 4 4 4 6 6 6 7 8 9 9 9 8 6 7 8 8 8 8 8
4 3 3 3 2 2 2 2 5 9 7 9 7 7 7 6 5 3 6 7 7 8 9 10 9 7 6 6 7 8 8 8 8
2 2 2 2 2 1 1 2 7 11 10 10 9 8 6 7 7 7 5 6 7 8 9 9 9 8 7 7 6 6 7 8 7
2 2 2 0 1 3 5 6 9 10 10 9 8 8 8 8 7 6 7 7 7 7 9 10 10 9 8 8 8 7 6 7 7
1 1 2 4 7 7 8 8 10 11 10 9 8 8 7 6 5 6 6 7 8 8 8 10 10 9 10 9 9 8 7 6 6
6 7 9 10 10 10 11 11 11 11 10 9 10 7 7 8 8 9 8 9 8 8 9 10 10 10 10 10 10 9 8 7 7
8 8 9 9 9 11 11 11 11 11 9 9 10 11 11 9 8 8 9 10 9 8 9 9 10 10 10 9 10 9 8 7 7
8 9 9 9 10 10 10 10 11 10 9 9 10 11 11 11 9 9 9 9 9 9 10 10 9 9 9 10 10 9 9 7 7
9 9 9 9 10 10 10 10 10 9 9 10 9 9 10 11 10 10 9 9 10 10 10 10 10 9 10 9 10 9 9 8 7
10 10 10 10 10 10 10 9 7 8 9 9 9 10 10 10 10 10 10 10 8 9 9 9 7 7 7 7 8 8 9 8 7

GFSFLT1_850_dewp_117.txt.gz
Dewpoint
10 12 12 11 9 1 3 2 -1 -3 -3 -4 -4 -2 7 10 10 4 1 -2 -3 -3 -3 -3 -5 -5 -5 2 1 5 7 7 7
9 12 10 9 7 -1 -4 -4 -4 -4 -3 -2 -1 2 9 10 11 8 1 0 0 -0 -1 -1 -2 -2 -3 -2 -4 0 1 8 9
11 12 10 6 0 -3 -4 -4 -3 -2 -0 1 1 2 9 10 10 3 1 1 1 1 1 1 0 -1 -2 -4 -3 0 -1 4 6
11 11 8 4 -1 -3 -3 -2 -1 1 1 1 1 2 8 10 10 8 2 2 2 3 3 3 2 1 0 -1 -3 -4 -3 1 4
11 9 10 3 -0 -2 -2 0 1 2 1 1 2 3 9 10 10 3 3 3 3 4 4 4 4 4 3 1 -1 -3 -3 -2 -4
12 11 8 3 1 1 2 2 2 3 2 2 2 7 10 10 10 3 3 4 4 4 4 4 5 5 5 4 2 -0 -2 -4 -4
13 11 7 4 3 4 4 4 4 4 3 3 6 10 10 10 10 4 4 4 5 5 5 5 5 5 5 5 5 4 2 -0 -1
12 12 9 6 6 4 5 5 6 11 11 9 10 10 10 10 10 4 4 5 6 6 6 6 4 4 6 6 6 5 5 4 3
13 11 9 7 7 6 5 8 11 11 10 10 10 10 10 10 11 5 5 5 6 6 7 7 5 5 6 6 6 6 6 6 5
12 13 13 12 12 11 11 10 10 10 10 10 9 10 10 10 10 9 5 5 6 7 7 8 7 6 6 6 7 7 7 7 7
12 12 13 12 12 11 10 9 10 10 10 9 9 8 8 9 10 10 7 5 6 7 8 9 9 8 6 5 6 8 8 8 8
12 12 12 12 11 10 9 9 9 9 10 10 9 8 8 7 7 9 10 7 6 7 8 10 10 8 5 6 6 5 7 7 7
12 12 12 11 10 9 9 8 8 11 12 12 11 10 9 10 10 8 7 9 9 7 8 9 9 9 7 8 8 6 5 6 6
11 11 10 10 9 9 8 8 10 12 12 10 10 9 8 7 9 9 9 9 8 10 11 9 9 10 9 8 8 8 7 7 7
10 10 9 9 8 8 8 11 11 12 12 9 8 7 8 9 8 9 10 9 9 8 10 10 9 10 9 9 9 8 8 7 7
8 9 10 9 8 11 9 9 9 9 9 9 9 10 11 10 9 8 8 10 8 9 10 11 11 11 10 10 10 10 9 8 7
6 10 11 11 12 12 11 10 10 10 9 10 11 11 11 11 9 9 8 9 9 9 9 10 10 10 10 11 11 10 10 8 8
6 12 12 11 10 11 10 9 10 10 12 11 11 10 11 11 11 9 9 10 9 9 9 9 10 10 9 9 9 10 10 9 8
10 10 8 7 7 9 9 9 9 11 12 11 10 10 9 10 11 10 10 9 9 10 10 10 10 9 9 9 9 8 9 8 8
5 7 8 9 9 10 10 10 10 11 11 9 10 9 9 10 10 10 10 10 9 8 8 9 8 7 7 7 6 6 7 8 8